GFSSGP_500_spd_093.txt.gz
Wind_Speed
26 27 29 30 32 30 24 23 28 30 33 33 35 35 35 36 37 34 29 26 29 30 31 31 30 31 24 26 28 26 25 25 24 23 23 23 24 24 22 21 23 22 20 21 22 25 27 27 25
28 27 28 30 32 26 19 20 26 34 37 36 36 35 36 37 37 37 34 32 32 32 33 33 33 30 26 25 27 28 27 28 26 24 24 25 26 26 26 27 28 26 24 24 24 27 29 28 28
28 29 31 33 29 22 21 23 32 33 35 39 40 41 41 39 36 37 35 35 35 32 33 34 34 34 31 27 28 29 30 30 29 27 26 25 27 27 27 27 26 27 25 25 25 27 30 30 30
28 29 32 33 28 26 25 26 30 34 37 42 45 44 45 43 41 41 40 39 37 35 34 34 35 35 34 32 31 30 30 31 31 30 29 28 28 28 29 28 28 29 28 26 24 28 29 28 32
30 30 35 33 29 26 29 29 36 35 37 44 47 46 49 48 47 46 45 42 40 40 36 33 34 36 36 33 33 31 30 32 33 33 31 30 30 30 31 31 30 29 28 25 26 28 29 26 25
34 35 39 35 31 31 32 34 38 38 41 41 45 48 48 48 46 45 45 45 42 40 39 36 35 37 37 35 33 32 32 32 32 35 33 31 31 31 31 32 34 33 31 28 27 27 28 30 28
39 40 40 37 32 29 29 35 38 41 42 40 43 46 47 46 46 47 48 47 44 40 39 37 37 38 40 37 35 36 35 33 34 36 35 33 33 32 33 34 36 34 32 28 27 27 30 29 25
42 46 45 38 35 32 27 33 37 41 44 41 45 46 45 46 48 49 49 48 47 43 41 38 38 40 40 39 37 37 37 36 35 36 37 37 36 33 34 35 34 36 31 26 28 27 26 31 26
43 47 45 41 38 38 33 36 38 42 44 45 43 45 47 48 49 49 50 51 53 51 46 41 34 37 38 39 38 39 41 39 37 37 38 39 37 34 35 35 34 33 29 27 29 29 27 28 25
44 44 41 41 43 42 42 42 37 41 43 44 43 47 48 50 51 51 52 53 54 53 53 48 36 33 35 38 39 40 42 41 37 38 39 42 38 34 37 35 33 30 29 28 29 28 29 25 28
48 48 46 45 46 46 45 44 40 42 42 42 44 48 49 51 51 50 51 48 51 53 49 51 48 37 34 39 39 40 41 42 38 38 38 42 38 35 36 36 32 28 29 29 28 28 28 24 27
53 51 49 50 50 51 49 47 45 43 40 42 44 46 49 50 51 51 52 54 52 50 49 51 51 41 40 40 40 39 42 41 37 37 38 42 39 38 36 36 31 26 27 29 28 28 25 25 28
52 50 52 53 53 49 46 47 47 44 39 41 43 46 49 51 51 54 55 54 55 56 53 53 53 49 38 37 45 43 42 40 38 34 38 41 38 39 36 35 29 24 26 29 26 26 25 23 22
52 54 54 53 51 51 50 48 51 47 43 44 45 46 48 50 55 57 59 60 60 59 60 57 55 52 40 41 48 48 44 43 37 33 38 39 39 39 36 33 26 25 26 28 26 25 24 23 19
55 56 57 49 46 53 54 50 42 39 38 40 41 44 48 50 54 61 64 66 66 66 63 59 56 58 44 43 46 48 44 41 36 34 37 38 39 39 35 31 25 27 27 28 27 25 24 21 22
54 54 48 41 47 48 46 42 35 36 40 42 45 45 45 48 49 53 61 70 70 70 70 64 59 54 42 40 44 45 43 41 38 35 36 36 38 37 33 29 25 27 27 28 28 26 24 23 22
47 47 47 42 42 43 42 33 33 37 40 42 45 47 49 47 44 46 51 60 70 72 69 66 63 54 46 41 42 43 45 43 38 35 34 35 36 35 31 29 27 28 29 29 31 29 27 26 26
44 49 44 40 35 37 36 30 33 32 38 43 49 52 52 50 49 51 51 54 59 68 73 70 65 52 42 44 43 46 50 39 37 36 32 34 34 31 29 28 28 29 31 30 31 29 27 28 29
44 43 41 32 36 35 34 30 27 29 39 48 52 55 53 54 51 49 47 49 51 57 62 66 63 54 47 46 42 46 46 32 32 31 33 35 31 31 28 27 30 28 30 30 31 30 28 29 31
43 39 35 32 34 33 33 28 25 31 41 50 52 53 53 54 52 45 47 46 48 49 52 53 46 50 45 44 39 43 39 37 41 36 37 35 33 31 26 29 28 28 27 28 29 29 28 29 31
37 38 33 34 29 30 34 30 27 32 44 39 43 46 44 46 46 46 45 37 45 45 50 49 43 43 46 41 40 44 41 38 39 35 36 29 32 29 27 29 27 28 27 27 27 28 28 31 34
38 34 34 29 30 30 35 36 26 34 40 37 39 44 46 47 44 42 43 37 44 47 41 44 42 40 41 37 43 46 37 34 40 30 28 32 28 29 29 27 27 26 25 23 24 28 28 33 34
34 31 30 31 32 31 32 37 32 35 43 37 40 41 45 43 42 37 37 34 43 38 38 41 44 36 34 37 45 40 41 39 39 33 32 29 28 30 28 26 25 23 23 22 22 22 29 34 35
31 32 33 33 34 30 31 41 35 41 42 36 36 38 35 33 29 28 31 33 41 38 40 37 42 41 40 39 39 40 40 35 37 30 28 26 30 31 26 25 24 22 23 22 21 23 29 34 34
31 32 34 35 32 31 32 37 38 39 39 37 36 23 29 25 25 26 29 31 37 37 37 38 34 34 36 38 41 40 36 38 34 30 28 29 31 29 25 23 22 21 21 19 22 23 25 31 35
31 32 34 35 33 32 34 37 34 35 33 34 35 36 28 29 25 33 32 32 31 37 31 38 35 32 36 40 38 39 38 37 33 30 30 30 31 26 24 22 21 20 17 22 24 25 27 28 32
33 32 32 35 33 36 34 33 34 30 29 28 29 24 27 20 27 21 23 31 34 37 33 35 31 32 37 38 39 36 38 35 33 32 32 32 29 25 25 22 23 23 22 21 23 26 26 28 32
35 35 34 35 34 37 34 34 33 26 25 23 17 17 20 14 15 19 20 29 27 32 31 35 36 40 40 48 40 38 38 39 37 35 34 30 29 27 26 21 23 26 24 22 21 25 22 25 32
35 39 39 39 38 38 38 36 29 24 22 22 19 12 14 19 16 13 14 22 32 26 27 30 33 35 28 32 45 40 42 40 35 37 33 31 29 29 27 22 24 24 22 21 20 26 20 29 32
36 40 43 43 41 46 43 41 29 21 20 20 14 12 12 11 16 14 13 16 20 30 31 31 32 34 35 35 38 40 40 37 37 36 32 31 30 30 26 26 25 23 22 18 18 21 18 24 30

GFSSGP_500_spd_096.txt.gz
Wind_Speed
25 24 24 25 27 24 18 17 21 26 30 32 34 35 38 34 34 34 33 30 28 30 30 29 28 27 26 25 21 24 26 28 26 24 22 21 20 20 22 25 26 26 26 20 18 18 19 23 23
29 28 28 27 25 20 16 17 24 28 31 30 33 39 38 34 36 37 35 33 31 31 31 31 31 30 30 28 27 25 27 26 27 28 25 23 22 22 23 24 26 27 23 23 21 22 21 22 23
29 28 28 28 21 16 16 21 27 31 34 33 36 33 38 38 40 39 38 37 35 33 34 34 33 32 32 31 29 29 29 28 28 30 29 26 24 25 25 25 27 27 28 27 23 23 21 23 24
28 28 29 28 19 15 16 21 26 32 35 39 39 37 37 38 39 39 42 41 39 38 37 37 34 34 33 33 31 29 30 31 29 31 32 29 26 26 25 26 27 29 31 29 27 25 25 27 28
28 30 33 29 22 22 23 26 30 33 35 38 41 39 39 39 40 39 41 42 41 40 39 39 36 33 32 34 34 31 30 31 30 31 32 32 28 27 26 27 28 29 32 34 31 29 30 26 25
33 33 38 33 28 25 27 30 34 36 35 37 40 40 40 43 43 42 41 41 42 42 42 38 36 36 36 36 36 35 33 32 31 31 33 34 32 28 28 28 29 30 33 36 34 32 30 23 24
36 37 39 37 32 32 29 32 34 35 36 37 39 40 41 42 43 43 41 42 45 45 43 41 39 38 37 37 38 37 36 36 34 34 34 35 35 33 30 30 30 31 33 35 36 33 26 23 24
39 42 42 37 35 35 31 35 36 38 37 37 40 40 41 44 44 44 44 44 44 45 45 44 42 39 38 39 40 40 37 35 36 34 34 37 36 36 34 32 31 31 32 36 35 30 24 24 23
42 45 43 39 36 37 36 38 38 39 40 38 39 38 41 43 44 45 45 47 46 46 48 48 46 40 37 36 38 39 38 35 36 37 36 38 37 37 38 34 34 32 33 37 35 29 26 26 25
42 46 44 41 40 41 42 42 38 41 41 38 39 40 40 40 43 45 47 48 49 49 50 52 52 49 40 34 34 36 39 37 38 39 36 39 39 36 39 37 34 32 34 38 36 31 26 26 26
45 47 44 44 44 45 46 43 43 43 42 42 38 39 41 42 42 45 47 49 49 50 50 50 49 47 48 34 33 36 33 39 39 40 36 39 41 36 38 39 36 31 35 38 36 30 28 26 28
48 46 44 45 47 46 45 46 42 43 40 39 41 40 44 46 45 47 48 51 53 51 52 50 51 50 50 44 36 34 38 39 39 35 35 35 40 37 37 39 37 31 36 37 34 31 28 26 24
46 46 47 47 48 48 49 49 51 48 42 44 44 44 45 48 48 49 50 51 53 52 55 52 51 50 50 49 45 37 39 44 41 38 35 36 38 38 37 38 36 31 35 36 33 28 27 25 24
48 49 50 51 52 53 52 53 54 50 45 44 45 45 46 48 49 51 53 53 55 54 55 55 54 54 55 54 51 45 44 47 46 46 40 39 37 38 38 37 34 32 35 35 31 27 26 25 25
51 52 52 52 52 54 56 57 51 45 47 44 43 44 42 40 44 48 53 55 56 57 58 59 60 60 61 60 58 47 46 49 49 46 40 40 38 39 38 37 33 32 33 32 29 26 25 26 25
49 49 48 46 50 53 54 53 47 43 42 44 44 40 41 44 46 48 52 55 60 62 63 63 61 62 64 65 61 52 47 51 49 42 40 39 38 40 37 36 32 31 31 30 28 26 26 27 26
45 45 47 49 50 48 49 50 44 37 40 40 41 44 48 47 46 46 49 50 56 64 67 69 69 62 63 67 66 53 48 46 49 41 41 40 38 39 38 34 30 30 30 29 28 27 28 28 26
43 46 50 49 40 44 43 45 42 35 37 40 44 45 44 44 45 45 47 50 54 61 64 70 74 69 64 68 67 58 53 45 46 42 38 40 39 38 37 33 29 28 29 29 29 29 29 29 28
50 49 46 40 41 44 42 40 34 33 37 41 43 44 45 47 51 52 53 51 53 62 65 64 64 63 64 69 68 60 48 45 43 41 36 40 40 36 36 31 28 27 27 28 31 31 31 30 29
49 47 40 37 38 45 39 35 32 33 35 38 40 43 46 50 53 57 55 52 53 51 58 55 56 59 61 62 66 66 51 49 42 45 44 41 40 37 36 29 27 27 28 30 32 30 30 30 32
43 42 36 39 39 38 38 34 28 31 33 37 41 44 47 52 56 56 50 47 48 47 52 54 55 58 54 57 52 57 51 47 47 49 48 44 44 43 36 29 27 29 31 30 31 28 29 29 32
41 38 40 39 38 36 35 34 29 29 31 37 41 45 48 50 53 51 49 45 43 45 48 55 57 55 47 49 48 47 40 46 40 47 44 50 47 39 28 27 27 29 29 30 29 29 30 30 30
40 38 38 36 35 35 34 31 30 28 34 37 40 45 49 45 47 47 44 42 36 40 39 47 48 44 45 46 46 42 45 44 42 45 43 36 40 39 26 24 28 27 28 28 28 28 27 28 30
41 35 34 34 34 35 32 34 29 30 34 36 42 48 46 38 41 37 39 35 32 35 39 43 42 41 45 42 39 41 43 42 41 45 41 37 31 29 24 29 27 26 26 27 28 27 26 25 26
32 31 33 35 34 32 33 36 31 31 34 35 41 47 44 38 30 27 29 24 24 28 34 37 38 35 31 41 43 42 38 39 42 41 30 35 28 28 29 31 25 25 26 27 27 25 25 24 24
30 33 32 34 35 35 35 37 32 33 32 33 38 44 40 35 32 36 28 27 26 27 33 35 37 38 29 39 40 35 33 40 46 41 37 37 34 30 33 29 25 25 25 24 22 23 25 26 29
27 30 32 35 36 37 36 35 34 33 35 33 38 36 31 32 28 32 28 24 23 27 26 30 34 40 34 35 38 39 42 44 43 42 36 36 34 31 31 29 25 25 25 24 24 23 23 26 30
30 33 34 36 39 40 38 38 38 35 35 33 33 29 27 24 22 21 23 21 20 20 22 24 27 39 35 30 32 41 44 44 43 44 40 35 32 32 31 27 27 25 24 27 27 26 28 29 31
34 37 38 38 40 42 41 41 40 38 36 32 29 27 27 20 17 21 20 17 19 21 24 27 27 33 35 33 34 40 43 47 48 40 39 34 31 31 31 28 27 24 25 25 26 28 28 30 31
33 36 39 43 43 43 45 43 41 41 40 34 27 23 21 18 16 15 19 16 14 23 25 32 29 30 36 36 35 38 40 50 38 42 37 32 34 34 32 27 25 27 25 25 27 28 27 31 25

GFSSGP_500_spd_099.txt.gz
Wind_Speed
23 24 24 24 23 16 12 14 20 25 27 27 29 28 32 32 34 31 32 30 30 30 29 28 27 26 24 24 22 22 24 27 27 27 24 21 19 19 19 19 20 21 22 22 21 19 18 19 18
25 25 26 26 22 14 10 15 22 26 27 28 29 28 27 29 33 34 34 33 31 31 31 30 29 29 28 27 28 25 25 26 27 28 28 25 21 21 21 21 21 21 22 24 25 22 18 20 21
28 25 26 25 15 10 9 16 21 26 27 30 31 30 30 32 32 31 34 33 33 33 34 34 34 33 30 29 29 27 26 27 25 26 29 29 26 23 22 22 23 23 22 23 25 24 23 23 26
27 25 27 24 14 10 12 16 20 26 28 30 30 32 31 34 33 33 34 34 35 34 33 34 35 35 34 32 31 29 28 27 26 27 29 31 30 26 24 24 24 24 24 24 25 27 25 25 28
29 27 31 23 18 17 18 21 24 27 30 32 31 30 32 32 33 36 37 36 35 35 35 34 35 36 35 34 35 34 31 30 28 26 28 31 31 28 27 25 25 25 25 26 26 28 26 26 27
32 31 33 28 22 21 22 26 29 31 30 31 34 32 33 35 36 35 37 37 35 36 36 37 37 36 36 36 36 35 35 33 32 30 30 31 33 30 28 29 26 27 27 28 28 28 28 26 24
35 36 36 31 25 23 23 31 33 34 33 33 33 33 32 35 38 39 38 38 37 37 37 38 37 37 38 38 39 38 36 34 32 30 32 33 34 35 31 30 29 29 28 29 29 29 29 28 24
37 40 39 33 28 26 28 33 33 35 35 35 34 33 34 36 36 39 40 40 39 38 38 39 40 39 40 40 40 39 38 36 35 32 32 34 33 36 35 31 32 32 30 30 30 31 30 29 26
39 43 39 33 34 33 33 35 35 36 35 33 33 35 35 35 38 39 41 41 42 41 41 41 42 43 43 40 38 35 36 35 32 32 31 33 34 36 39 32 33 35 32 30 30 32 29 30 28
41 44 40 37 37 38 38 37 37 39 38 36 35 35 35 35 36 39 41 42 43 43 44 44 44 45 44 43 36 33 33 30 31 31 32 32 35 36 39 35 33 34 35 31 32 33 29 31 30
41 41 37 40 38 41 41 38 41 39 39 39 38 37 39 39 39 38 41 43 44 46 46 46 45 46 46 45 39 34 32 28 31 30 35 34 34 37 39 36 33 34 37 33 32 33 30 30 28
43 40 40 42 43 43 41 43 40 43 39 41 43 42 41 42 44 44 42 44 47 48 50 48 48 47 49 48 45 40 36 33 34 33 34 37 34 36 39 36 34 34 36 34 33 33 29 28 28
47 46 46 45 44 43 46 45 47 44 42 43 41 41 41 41 43 45 47 47 49 52 52 52 51 50 52 48 45 46 45 39 36 39 39 36 37 36 41 40 35 33 36 34 32 30 29 29 27
48 48 48 48 47 47 48 50 49 44 44 43 43 41 40 42 44 45 48 50 51 54 55 54 54 52 53 50 50 49 52 49 40 40 44 44 38 39 40 42 40 34 36 33 32 28 27 29 26
45 47 48 47 48 50 53 50 48 48 43 41 40 40 39 41 44 47 49 51 54 54 53 56 57 55 54 56 54 54 56 54 48 46 47 50 44 40 43 45 45 35 36 33 32 26 26 28 27
45 45 44 46 48 50 48 47 46 43 44 43 41 38 39 40 43 45 47 48 49 50 51 52 53 55 57 58 60 60 58 57 54 50 47 51 49 41 46 44 45 39 35 32 30 26 26 27 28
48 46 47 49 49 48 44 42 44 43 41 39 38 38 40 41 42 43 43 45 48 49 50 52 54 54 55 60 63 62 65 62 58 50 50 50 51 44 43 43 42 41 35 32 30 25 26 27 29
45 45 44 42 44 45 43 45 47 41 39 36 37 39 41 41 40 41 43 44 46 48 50 53 57 58 63 68 68 67 65 65 62 50 49 47 48 44 41 43 41 43 35 31 26 24 25 28 30
47 45 45 42 43 44 46 47 44 37 37 35 36 39 41 42 41 42 43 44 46 50 54 56 57 62 67 70 74 74 68 68 59 52 51 47 49 42 41 42 42 43 36 30 26 24 27 30 31
45 41 40 43 46 48 47 45 36 34 34 36 38 40 39 39 40 42 45 47 49 53 57 55 56 57 63 68 67 68 67 68 66 59 49 48 47 38 39 41 42 41 37 29 25 25 29 30 32
44 44 43 46 47 47 47 43 31 32 34 37 39 38 39 39 40 41 44 48 51 57 57 55 52 50 49 49 54 59 63 66 64 62 53 48 46 42 45 43 42 40 36 27 26 27 31 31 31
45 42 43 45 46 44 44 43 33 32 33 36 37 38 38 40 40 42 46 52 56 56 52 49 48 48 49 47 47 52 56 55 52 46 41 39 45 48 46 48 45 42 34 26 28 31 32 30 29
41 42 44 43 42 41 38 37 37 34 32 34 36 38 40 40 41 43 49 56 54 48 46 44 43 44 44 46 45 51 47 41 43 38 34 38 46 47 49 56 50 39 29 27 31 32 31 29 29
41 43 42 41 39 43 33 34 37 35 33 35 38 38 38 39 41 45 48 44 37 35 37 32 37 41 39 39 37 43 39 39 45 40 39 43 42 45 48 37 50 27 24 28 31 29 28 27 29
38 37 37 38 38 37 32 35 35 34 35 36 37 36 37 39 40 46 39 33 34 32 27 23 28 32 31 31 34 36 35 37 37 36 36 36 41 37 31 32 29 22 24 26 28 28 26 28 27
33 35 33 34 34 36 37 38 35 36 35 35 34 35 36 39 40 42 35 29 33 27 27 25 24 27 31 32 36 38 36 39 34 34 36 41 43 38 33 30 23 23 25 24 28 27 27 28 24
30 32 33 37 38 37 37 34 34 34 33 34 34 34 35 40 39 37 35 29 29 21 24 22 25 26 29 33 30 28 38 35 33 38 41 41 41 42 40 32 27 27 24 25 29 27 25 24 23
30 33 34 35 36 35 35 33 33 32 34 34 34 33 35 38 36 35 32 26 23 21 20 21 24 26 31 34 36 32 37 36 36 39 43 42 45 41 36 33 24 26 24 26 29 28 27 26 25
32 31 28 30 33 34 34 34 33 35 36 37 34 32 32 33 34 34 27 22 21 20 21 16 18 22 28 35 39 34 36 34 37 35 35 39 46 40 45 28 27 27 26 29 30 28 29 28 27
28 29 30 32 34 35 37 37 37 40 40 38 38 35 32 31 33 30 29 19 17 19 15 20 22 21 26 31 39 31 32 34 35 34 36 42 44 43 30 27 28 30 27 30 29 29 28 27 28

GFSSGP_500_spd_102.txt.gz
Wind_Speed
22 21 21 21 20 14 15 19 24 28 29 28 27 25 24 27 25 29 31 32 32 31 29 28 27 26 25 25 24 24 24 25 27 27 25 22 22 23 19 18 17 18 18 18 17 17 16 13 15
24 24 23 22 17 12 14 19 26 31 29 27 28 25 26 29 25 24 28 31 31 30 31 31 31 30 29 28 27 27 27 26 27 28 28 25 23 23 23 20 19 19 20 20 19 18 17 18 19
26 26 26 22 11 10 15 21 27 30 28 25 25 25 26 27 27 26 26 30 28 28 29 31 31 32 32 31 29 28 28 28 28 28 28 27 25 24 24 24 21 21 22 21 20 19 20 20 20
27 28 29 23 12 11 16 21 24 26 26 24 23 24 25 27 28 27 30 31 30 29 30 29 31 31 31 31 30 30 29 29 29 29 28 28 27 26 25 25 24 23 23 22 22 21 21 21 21
28 29 31 25 17 15 20 23 26 27 29 28 25 24 26 26 28 29 30 31 31 31 31 32 32 32 32 32 32 32 31 30 30 30 28 28 27 26 27 26 26 25 24 23 24 23 23 22 22
31 30 33 29 22 20 22 26 29 30 31 32 29 27 27 29 28 30 33 34 34 33 32 32 32 32 32 32 32 32 33 32 31 31 30 29 30 29 27 27 26 26 26 25 25 24 23 23 23
33 33 35 32 26 25 24 29 30 31 33 34 32 31 31 31 28 30 32 35 37 36 35 34 34 34 34 33 33 34 34 32 33 33 32 31 32 31 31 29 28 27 27 27 27 26 26 25 25
34 38 38 31 30 30 30 33 34 32 32 32 32 34 31 34 33 33 32 33 36 37 39 38 37 36 35 36 36 36 35 33 33 33 35 34 32 33 33 32 28 28 28 30 29 27 26 26 27
36 40 38 32 32 34 33 35 36 34 33 34 34 35 36 32 34 34 33 34 37 38 38 39 40 40 38 38 38 39 37 34 33 29 30 32 29 31 32 34 33 29 28 30 32 31 27 28 28
37 39 35 35 34 36 36 34 36 36 37 36 36 39 39 38 35 35 36 35 37 40 40 41 42 43 42 42 42 42 37 35 31 28 29 30 31 30 32 34 36 34 29 32 33 33 28 28 28
41 39 37 34 34 36 36 34 37 38 42 40 41 41 42 41 40 39 40 40 39 40 41 43 44 44 44 44 45 43 39 34 33 30 32 31 33 33 34 32 33 34 31 32 34 35 31 29 29
46 43 40 40 37 37 37 40 40 44 39 40 41 39 39 40 40 38 39 39 42 43 45 45 47 47 46 46 46 45 42 38 38 35 34 34 33 34 36 36 33 35 32 32 34 36 32 30 29
48 47 46 45 44 42 42 43 44 43 42 44 42 42 42 42 41 41 39 40 41 44 46 48 49 50 50 49 49 48 45 43 43 38 37 36 36 34 36 36 39 36 37 32 35 36 34 31 29
54 51 50 49 48 47 46 46 46 42 45 45 46 45 43 41 42 41 43 43 45 46 47 49 51 52 53 52 51 49 49 45 39 39 38 39 39 39 38 38 39 41 40 35 35 37 36 31 29
50 54 54 51 49 49 47 47 46 46 44 45 46 43 41 40 39 41 43 45 46 47 49 49 51 53 54 53 54 52 50 50 54 51 46 42 42 43 44 42 41 45 46 41 38 38 38 33 28
54 51 48 51 48 50 50 45 43 45 45 44 41 41 41 41 41 40 40 42 44 46 48 50 50 52 53 53 54 54 54 54 54 55 53 51 46 45 48 46 45 45 48 46 41 38 40 33 28
59 55 51 53 50 53 52 49 46 46 44 41 41 40 39 39 41 40 40 41 42 44 43 44 47 48 48 50 52 54 56 57 59 59 58 55 54 47 50 50 49 47 47 48 42 38 39 33 28
57 52 52 56 57 54 51 47 43 40 41 40 42 43 39 38 40 41 41 41 41 41 41 44 46 47 50 51 52 53 56 58 63 65 62 55 48 48 48 49 49 48 47 47 43 37 38 31 29
53 55 55 57 56 53 47 46 45 40 40 42 46 45 41 40 40 40 40 40 40 41 42 44 46 49 50 52 55 59 62 64 68 67 67 62 59 55 52 49 48 47 48 47 45 36 35 31 30
55 57 57 56 49 52 48 45 43 42 43 45 43 42 41 41 40 40 40 40 40 41 42 45 49 50 53 55 58 61 62 66 69 69 68 63 59 53 53 50 47 45 48 44 45 39 33 32 31
58 58 56 51 49 48 46 44 44 42 41 41 40 39 40 40 40 41 41 40 41 42 45 46 52 57 58 61 61 61 59 60 62 68 63 58 55 54 51 48 46 45 48 45 45 41 34 31 32
56 47 48 48 46 44 46 38 44 37 36 36 37 38 40 41 41 41 41 42 41 44 49 51 55 57 60 60 55 48 47 45 46 55 51 51 54 55 55 54 47 45 49 47 47 42 35 33 32
45 47 46 48 46 43 42 40 37 37 34 34 36 40 41 42 42 42 43 43 44 46 49 52 51 54 49 48 49 47 45 43 47 47 48 49 48 51 49 50 59 42 52 47 45 46 38 34 34
38 42 48 44 41 43 37 37 28 40 34 35 37 39 40 41 42 42 42 42 45 48 49 51 46 40 44 46 47 46 43 41 43 40 39 42 45 43 39 43 44 42 48 53 48 49 40 37 32
38 37 36 36 39 36 34 32 25 44 38 36 36 37 38 40 41 40 39 39 43 47 51 42 38 42 38 34 32 36 36 37 36 36 38 40 39 43 41 38 39 39 42 42 51 49 38 34 30
34 30 25 22 20 21 36 36 42 40 40 35 34 35 37 37 36 37 37 36 41 48 41 36 35 34 36 29 30 29 32 33 35 37 37 36 40 43 41 42 36 35 42 48 43 40 33 30 30
23 25 20 28 29 30 27 34 38 39 40 38 37 35 35 35 35 35 35 35 40 43 35 34 29 30 29 26 27 27 26 29 35 35 35 34 36 40 42 40 40 30 19 28 32 27 29 29 27
23 24 23 26 26 26 24 27 27 39 37 36 34 36 35 33 33 34 36 34 40 38 31 33 26 26 28 26 24 26 29 35 37 38 38 35 34 37 41 36 44 27 24 33 27 25 29 27 26
29 31 32 31 31 28 26 26 35 35 35 35 35 36 35 32 33 34 37 36 40 35 32 26 27 22 23 25 28 30 31 35 31 35 37 33 33 33 40 42 39 35 37 38 29 29 29 27 28
34 35 34 34 34 34 34 33 37 35 34 35 36 37 37 34 33 35 39 40 39 34 29 22 22 23 23 25 28 32 30 34 31 34 33 35 35 36 41 42 39 44 41 30 29 26 26 27 28

GFSSGP_500_spd_105.txt.gz
Wind_Speed
21 20 20 20 18 15 16 16 28 33 34 31 31 27 27 24 25 27 28 26 29 31 30 30 29 29 29 28 25 24 25 27 27 26 24 25 24 23 20 20 19 18 16 16 16 16 15 12 12
23 23 22 22 17 15 10 17 30 36 34 32 31 28 27 26 24 26 28 24 28 29 29 30 29 30 30 29 27 26 26 27 27 27 27 28 27 26 25 22 22 21 19 18 17 18 17 16 15
25 25 25 23 17 15 15 33 34 38 34 34 29 26 27 28 22 26 26 29 27 27 28 29 29 29 29 30 30 29 27 27 28 28 27 26 25 24 24 25 24 24 23 21 18 18 19 18 18
26 27 28 25 18 17 24 33 26 34 33 31 26 24 23 23 23 24 25 29 29 29 28 28 30 31 31 31 32 32 32 30 28 28 27 27 25 23 24 25 25 24 24 23 20 19 19 20 19
26 28 29 27 20 21 24 29 27 31 31 29 29 27 26 26 24 24 26 28 31 30 30 29 30 31 32 33 32 33 33 32 30 28 27 27 26 24 24 25 25 24 24 24 23 22 21 22 21
30 29 32 31 23 22 29 29 31 33 34 32 33 30 29 34 25 24 27 28 30 31 31 31 32 33 33 33 34 32 32 33 30 28 27 28 28 27 26 27 27 25 23 25 25 24 24 23 22
31 34 33 35 27 26 30 33 33 36 35 35 35 29 31 35 31 28 29 31 30 30 29 32 33 34 34 34 34 33 33 32 31 30 29 29 30 30 30 31 28 27 24 24 25 25 24 25 23
33 38 36 34 30 30 35 37 34 39 37 38 36 31 33 36 33 33 33 33 34 34 32 31 33 34 34 34 35 35 35 35 33 32 30 31 32 33 34 35 31 30 26 24 26 26 25 26 26
34 39 38 32 35 33 37 36 39 43 39 40 38 36 39 37 36 36 36 35 35 36 36 36 36 35 36 36 37 37 37 37 36 33 30 31 35 35 34 35 34 32 28 26 24 27 27 29 26
36 39 35 35 35 35 36 37 36 44 38 43 39 41 43 40 38 39 39 39 37 37 37 38 38 38 39 39 39 39 40 40 37 34 32 33 34 36 35 36 35 35 31 29 27 26 26 29 28
39 40 37 40 40 37 38 35 38 40 43 42 42 43 42 43 40 40 40 42 43 40 41 41 41 42 42 42 41 42 43 42 39 36 34 33 34 34 37 36 36 36 32 30 30 26 25 28 29
44 43 41 43 46 43 39 41 40 40 44 38 43 42 42 42 41 39 38 42 41 43 42 42 42 43 44 44 43 43 43 44 41 37 39 37 36 36 36 35 36 37 36 33 31 30 26 27 29
47 47 48 48 47 48 46 45 43 45 44 43 44 43 40 43 43 43 44 42 45 43 43 43 43 44 45 46 46 45 45 44 44 41 41 41 39 39 40 40 39 40 40 34 34 32 31 28 29
54 56 54 51 53 50 49 50 50 48 46 48 45 45 43 45 45 46 46 46 44 44 46 46 47 47 48 48 48 47 47 46 46 44 40 41 44 42 40 41 41 43 41 39 35 35 33 33 30
59 56 60 59 58 52 51 51 52 52 52 48 48 47 46 46 45 45 45 44 44 44 45 46 48 49 49 49 49 50 49 49 49 48 44 42 38 39 41 41 44 45 46 41 41 39 37 35 36
63 62 61 63 63 57 50 50 50 53 51 46 45 46 46 44 46 43 42 43 44 44 44 44 46 47 48 49 50 51 51 50 51 52 49 47 45 47 47 46 43 47 50 44 44 43 45 40 38
66 68 66 65 63 59 60 53 52 54 51 48 50 49 48 48 43 41 41 42 42 41 42 43 44 46 47 47 47 48 49 50 51 51 52 49 50 51 51 48 47 49 51 49 49 45 46 47 40
70 70 68 65 55 64 61 59 55 56 51 51 51 50 48 43 42 37 41 42 41 39 40 42 43 44 45 43 43 44 46 49 50 52 51 51 53 54 54 52 47 49 48 50 49 49 48 49 44
74 71 66 63 58 60 66 62 58 54 53 51 49 49 47 43 40 41 41 42 42 41 39 37 37 40 42 44 45 45 45 47 50 51 54 55 58 59 59 57 49 48 44 46 50 53 51 51 47
58 69 69 61 59 59 64 62 56 54 53 50 51 53 46 41 43 44 45 43 42 41 39 38 39 41 45 45 45 46 48 51 54 56 59 62 64 66 66 59 51 52 50 51 48 51 51 51 48
62 71 71 67 67 68 58 60 56 54 51 51 51 51 46 44 44 45 45 45 43 41 39 40 41 43 46 49 48 50 54 57 61 63 64 68 67 66 60 68 52 53 50 44 46 50 53 52 48
46 43 64 65 69 65 41 49 41 47 54 47 46 45 46 43 43 43 44 44 40 39 40 41 43 46 48 49 52 53 57 60 64 67 69 62 60 62 62 58 60 54 52 48 47 50 51 51 48
53 45 51 43 50 62 55 37 31 31 48 43 43 42 43 42 42 43 42 40 39 39 40 42 44 47 51 49 52 57 60 61 55 53 55 52 53 54 52 51 56 55 54 56 54 57 51 51 46
39 36 39 50 29 41 47 36 24 30 31 36 39 44 41 41 42 42 41 41 41 42 42 43 45 47 49 48 51 55 53 47 48 51 51 48 48 46 45 50 55 54 62 57 57 60 56 52 46
35 23 29 34 27 37 24 23 32 23 21 26 42 35 37 39 41 41 42 44 44 43 42 43 44 45 46 46 47 49 44 45 47 48 48 49 45 43 41 46 51 59 59 53 44 54 51 45 46
37 30 32 35 33 24 30 32 28 37 38 39 31 30 35 39 40 39 42 45 44 42 41 42 41 42 45 43 46 42 44 43 41 39 41 43 41 42 38 42 46 50 53 41 45 44 39 45 40
23 29 17 22 23 19 19 21 27 32 37 40 41 37 35 35 36 38 41 43 42 40 40 39 38 41 43 42 38 39 37 37 35 36 40 40 38 40 38 42 44 46 46 47 43 46 47 38 40
24 15 13 23 24 19 14 15 24 26 28 36 40 37 38 38 38 38 39 40 39 39 36 35 38 41 38 37 37 37 34 32 33 34 40 39 37 35 37 39 40 42 45 43 42 41 38 44 38
20 18 21 26 28 24 23 23 28 26 35 36 33 36 38 37 38 38 37 37 37 37 33 35 37 38 38 35 34 32 29 31 31 31 31 33 34 36 38 34 40 46 41 41 39 33 46 45 46
30 32 31 31 28 21 28 23 23 28 31 32 38 35 36 37 37 36 35 36 36 36 34 35 37 39 37 36 34 30 29 30 31 28 32 35 35 37 40 33 36 40 40 36 31 35 41 40 37

GFSSGP_500_spd_108.txt.gz
Wind_Speed
25 24 23 22 20 16 12 11 8 33 36 36 32 32 31 27 26 34 28 21 23 23 28 28 28 29 29 29 29 29 27 26 27 25 25 23 23 23 20 18 17 17 18 18 17 16 15 15 15
25 25 25 25 21 18 9 7 23 39 41 32 29 31 31 30 30 30 29 23 27 25 28 27 30 30 30 29 29 29 29 30 30 30 28 27 27 26 24 22 19 17 18 19 18 17 16 15 15
24 25 25 27 21 18 16 12 29 43 40 33 32 32 30 29 28 26 26 29 29 27 26 27 28 29 30 31 30 30 30 30 31 30 30 30 29 27 25 23 22 19 18 19 20 19 18 17 16
24 25 26 27 21 20 24 21 36 41 39 35 32 31 29 25 27 23 23 28 28 28 28 27 28 28 30 31 32 32 32 32 31 31 31 30 28 26 24 23 22 22 21 20 20 21 20 18 18
24 25 27 27 22 20 22 26 39 32 34 34 31 29 29 28 26 24 22 27 29 29 27 28 29 29 31 32 32 32 33 33 33 32 30 28 27 26 24 22 22 22 23 24 23 21 21 19 18
24 25 28 27 24 21 22 23 40 38 35 34 34 33 30 35 31 25 22 28 29 29 28 28 30 30 31 32 32 33 34 32 33 31 29 27 26 26 25 24 23 23 25 25 25 24 23 22 20
26 27 28 28 28 22 26 32 43 38 36 38 39 35 31 36 41 27 23 31 32 32 31 28 29 30 31 32 33 33 33 32 33 31 30 28 26 26 29 28 27 28 26 25 26 24 24 24 23
27 30 29 28 26 24 27 36 46 37 36 43 43 37 35 40 40 30 30 33 33 33 36 34 32 32 32 33 34 34 34 35 34 32 31 30 29 29 30 32 30 30 29 26 27 25 23 24 24
27 30 30 23 27 29 28 39 40 38 44 42 49 42 41 42 42 36 35 35 38 34 37 37 37 35 34 35 35 36 36 37 35 34 33 30 31 33 33 34 33 33 31 29 26 26 26 23 23
29 32 27 28 28 32 33 34 37 37 44 43 47 45 48 45 44 41 39 38 40 40 36 39 39 37 37 37 37 38 38 38 38 37 34 32 32 35 36 35 35 35 33 32 30 26 25 26 25
34 32 30 30 34 38 35 32 37 38 40 42 46 46 49 47 43 41 41 42 42 42 38 40 41 41 41 40 40 40 40 40 40 39 36 34 33 34 35 34 35 36 35 35 33 29 26 25 25
38 39 39 37 37 40 42 37 38 39 41 46 42 44 48 46 46 42 41 41 43 43 41 39 41 42 43 44 42 41 41 42 41 41 39 36 34 35 34 36 34 37 37 36 35 35 32 27 26
44 46 47 47 47 46 50 47 42 42 44 46 45 47 47 48 45 49 45 43 44 45 42 43 41 41 43 44 42 42 42 43 42 44 41 39 37 37 38 37 39 37 40 38 39 36 36 33 29
53 53 54 55 58 58 54 53 49 47 46 47 48 49 51 51 47 50 51 49 49 44 44 45 45 45 46 45 47 45 44 44 43 44 43 40 39 38 37 40 40 43 39 39 39 40 38 37 32
57 60 59 59 61 60 63 62 58 51 50 49 51 52 52 50 50 51 54 53 49 49 46 43 47 47 46 46 48 48 46 46 44 45 46 43 42 39 37 39 40 40 38 38 40 41 42 42 38
62 66 69 62 64 64 67 63 58 56 57 54 53 50 51 49 48 50 49 49 50 47 45 43 42 44 45 45 46 47 47 47 47 46 45 45 44 44 41 42 41 44 44 41 39 41 43 44 42
70 74 73 72 68 67 67 71 63 57 55 59 61 49 47 50 51 53 51 48 49 49 43 42 41 40 41 44 45 46 46 47 46 46 47 48 44 46 44 43 41 45 48 45 43 44 45 47 45
70 74 75 76 71 68 70 57 69 65 62 63 64 55 50 50 53 52 51 50 48 45 41 40 41 40 40 43 44 45 46 46 45 45 45 46 46 46 48 47 45 46 46 47 47 44 46 48 49
74 75 78 78 76 70 56 53 44 50 63 64 66 59 53 48 55 54 51 45 45 44 40 39 39 40 41 42 42 43 42 42 42 43 45 47 48 47 49 48 49 46 52 54 48 47 47 49 50
65 69 71 65 66 58 57 66 59 49 55 54 61 55 54 48 53 55 49 45 46 44 42 41 40 41 40 41 41 40 40 40 41 44 45 48 50 49 50 51 53 55 64 64 53 50 45 48 49
50 55 49 53 49 55 65 60 62 56 58 50 48 48 45 54 59 56 48 47 48 46 43 42 41 40 41 41 41 40 41 40 44 47 50 51 53 56 57 59 60 58 69 63 50 55 51 50 54
49 46 48 49 51 40 51 61 56 61 65 45 39 36 48 60 54 51 48 48 47 45 44 42 41 41 41 41 42 42 43 44 48 51 53 55 57 59 63 65 68 66 66 67 64 48 47 43 44
45 45 42 45 51 52 46 52 54 48 37 40 37 47 52 55 54 45 46 46 45 43 42 43 44 42 40 40 41 42 43 43 46 50 54 60 64 66 70 69 72 72 69 71 69 67 55 54 47
39 37 37 45 39 46 37 45 40 22 27 36 48 59 51 44 40 44 44 44 42 41 42 43 42 40 40 41 42 43 41 44 47 53 60 61 59 58 60 54 57 64 64 67 65 69 68 50 49
30 31 40 40 34 29 24 23 39 38 32 37 40 34 36 39 40 41 41 44 42 43 42 41 42 41 41 41 41 40 40 46 52 56 55 54 50 54 55 60 45 46 46 49 52 54 51 49 47
28 31 33 30 28 26 24 24 27 33 30 36 32 35 44 26 31 35 38 39 40 41 42 42 43 39 37 38 40 41 44 50 53 51 46 48 49 51 45 29 34 40 42 43 51 53 50 53 49
27 26 20 21 17 14 17 17 27 18 30 35 35 41 29 32 28 35 37 39 43 43 44 43 39 36 36 37 39 40 44 50 47 44 46 42 44 42 41 38 41 46 42 43 48 56 55 51 56
24 19 16 18 18 21 16 15 21 30 27 32 38 46 39 36 45 39 37 41 42 42 43 42 38 35 37 38 36 41 45 44 41 41 43 40 37 36 39 42 43 42 42 42 43 51 48 49 50
30 23 20 20 21 20 18 17 17 18 32 33 31 32 35 39 37 39 42 42 43 42 42 39 37 35 36 35 36 40 44 39 39 39 36 36 33 37 39 41 39 41 38 40 41 42 43 35 47
26 25 20 24 22 17 26 27 19 25 31 21 32 34 39 36 37 38 43 43 42 41 39 38 38 36 35 36 40 40 43 38 38 37 33 29 32 35 41 39 37 36 34 32 36 39 39 40 42

GFSSGP_500_spd_111.txt.gz
Wind_Speed
25 26 27 26 23 20 11 17 25 28 28 26 29 34 37 39 34 34 29 24 22 18 21 26 26 27 28 28 29 29 29 28 26 24 24 25 25 24 24 23 20 17 17 18 18 17 16 15 14
25 25 26 26 23 18 14 24 27 18 26 30 32 34 36 38 36 33 26 24 25 24 23 25 27 30 31 31 31 32 32 31 30 29 27 25 26 26 26 25 21 18 16 17 18 17 17 17 15
24 24 25 24 20 15 16 23 34 30 30 35 38 39 35 35 32 29 23 24 29 24 24 26 26 27 28 30 32 32 32 32 31 32 31 27 27 27 27 25 22 20 17 16 18 18 18 18 17
24 24 26 24 19 16 18 26 33 37 35 40 38 36 33 32 32 28 23 27 27 25 23 27 27 28 28 29 30 31 31 31 31 31 29 27 27 26 26 24 22 21 19 17 16 17 19 19 18
24 25 27 23 20 17 19 20 26 36 40 41 32 33 37 31 30 27 18 23 28 27 23 26 28 28 29 29 30 30 31 31 31 30 30 28 26 26 25 24 22 20 21 20 19 19 18 18 19
22 27 27 23 22 21 23 28 32 38 39 41 39 35 32 35 34 25 21 24 31 29 26 26 28 29 30 30 30 30 30 31 31 30 29 28 26 26 25 24 22 22 22 22 23 22 20 19 17
24 29 25 23 20 18 21 26 37 41 40 40 40 34 36 36 40 31 26 26 32 34 31 30 30 30 30 31 31 32 31 32 32 32 30 28 27 27 26 27 25 23 25 22 23 23 21 20 19
23 27 23 18 19 16 22 23 36 41 40 43 41 35 38 40 42 37 30 30 35 31 35 32 32 33 32 33 34 34 33 33 33 33 32 30 29 29 28 29 29 25 26 26 24 23 21 20 19
21 22 14 16 22 21 25 30 36 41 40 38 41 41 40 46 45 43 36 34 37 37 35 37 35 35 36 35 35 35 35 35 34 35 34 33 32 31 29 29 31 30 27 27 25 24 23 22 21
26 27 17 19 19 21 21 24 26 37 33 35 37 44 40 41 47 46 42 41 40 44 38 38 38 37 38 36 36 37 37 37 37 37 36 35 34 33 32 30 30 31 31 31 29 26 24 23 22
28 28 23 22 25 27 28 26 22 28 32 35 39 39 40 42 42 44 41 41 43 46 45 38 41 42 39 40 37 37 39 38 39 39 38 37 35 34 33 31 31 33 33 33 33 30 26 25 24
36 33 32 30 31 35 37 39 35 34 34 34 39 41 42 45 44 42 42 41 40 48 49 42 39 43 43 42 39 39 40 40 41 40 40 38 36 35 35 34 33 33 35 35 36 36 33 30 27
39 39 40 40 41 42 42 43 45 44 43 39 41 42 43 46 48 47 44 44 44 47 48 47 43 40 43 42 41 39 40 41 41 40 40 39 39 35 36 34 34 35 36 37 38 39 37 34 32
44 46 45 46 49 53 55 51 53 49 47 47 45 46 48 48 49 50 49 49 47 48 49 50 45 42 44 45 45 44 44 43 43 42 42 41 42 39 39 36 36 37 37 37 40 40 40 38 35
47 50 49 50 54 57 61 60 60 59 57 55 53 53 53 52 53 52 50 54 52 48 47 48 47 47 46 47 46 46 47 45 43 42 41 42 43 44 38 39 39 37 38 38 40 42 42 41 40
54 54 55 52 56 60 62 68 65 63 62 62 57 55 57 58 56 57 53 52 51 50 47 43 43 44 45 46 45 45 46 46 44 43 42 41 43 44 45 43 41 40 40 40 41 42 42 41 43
53 57 59 59 60 65 66 71 73 72 74 70 67 66 61 60 62 60 57 53 51 49 48 45 43 42 45 47 46 44 44 45 44 44 42 43 43 45 48 44 41 42 42 43 43 45 46 46 44
59 60 60 65 65 70 72 74 78 76 68 73 70 68 66 63 63 64 60 55 53 48 49 50 50 46 44 44 44 43 43 43 44 44 44 44 44 44 44 46 44 42 42 43 44 46 50 49 46
57 61 64 63 65 71 73 76 82 80 56 56 57 46 48 51 56 65 62 58 55 50 48 48 49 47 44 42 42 42 42 43 43 43 43 44 43 43 40 40 44 47 46 46 47 49 54 53 47
62 62 63 66 67 67 69 74 69 64 59 52 50 45 44 46 52 61 56 55 55 52 47 48 47 47 46 43 41 40 41 41 41 41 40 40 41 42 42 43 45 47 48 49 51 53 59 59 55
57 58 57 60 59 59 57 59 55 47 38 43 59 59 44 47 54 55 50 46 48 44 43 46 47 47 46 44 42 41 40 40 40 40 39 38 40 43 45 47 50 49 53 55 57 60 67 82 75
51 46 47 44 48 51 56 57 49 38 33 46 51 38 48 54 50 39 51 56 49 42 44 43 45 46 45 43 42 41 41 41 42 40 40 40 43 46 49 51 54 58 57 62 62 64 62 70 56
40 40 42 44 45 47 44 45 41 34 41 39 51 52 52 52 51 38 53 47 35 41 42 42 44 45 44 43 42 42 42 42 41 41 42 44 47 49 50 51 55 61 64 65 66 71 72 66 61
40 41 37 40 42 43 39 42 26 25 36 38 48 48 58 62 50 41 53 43 39 40 41 43 43 43 42 42 41 42 43 43 42 42 42 42 45 48 52 57 62 65 66 64 63 73 72 72 71
34 36 36 38 39 40 29 32 25 19 25 32 52 54 54 53 48 45 50 47 46 44 38 42 40 41 40 39 40 41 44 41 40 42 43 43 47 53 57 59 63 57 55 56 65 70 62 65 68
37 33 31 34 35 31 32 27 24 25 26 34 37 55 61 46 46 45 43 44 45 40 40 42 42 41 41 42 43 40 41 40 40 41 41 44 51 54 56 54 52 53 57 58 70 62 46 52 56
34 30 30 29 26 26 24 16 19 16 20 29 42 31 39 38 40 39 38 37 29 34 37 37 37 39 40 40 40 41 40 39 39 39 42 46 52 51 46 49 48 49 51 40 33 34 40 45 45
34 30 24 22 21 21 17 17 15 18 23 25 33 31 29 28 47 46 45 30 29 38 40 39 39 40 43 43 40 40 39 39 39 40 42 46 48 44 44 46 45 43 38 38 37 31 36 39 42
33 31 24 21 22 22 20 22 19 18 20 32 29 37 34 40 42 42 36 37 40 34 37 41 44 43 41 41 40 39 39 38 38 41 43 44 45 42 42 39 36 31 33 35 30 32 33 38 41
32 31 26 20 17 24 24 35 33 33 31 12 38 33 34 35 42 47 42 40 37 38 38 42 42 43 41 39 39 38 36 38 40 42 43 45 43 39 38 36 31 33 35 32 33 33 34 36 35

GFSSGP_500_spd_114.txt.gz
Wind_Speed
27 26 28 27 25 17 15 25 23 27 23 17 15 19 26 30 33 34 34 32 25 22 23 22 23 25 27 28 29 29 29 30 29 28 26 26 25 24 24 24 23 21 19 16 16 16 16 16 16
28 27 27 25 24 16 18 28 26 27 29 25 23 25 30 33 35 36 34 25 27 26 24 24 25 25 26 29 30 32 32 33 32 31 29 27 27 25 24 23 22 20 18 14 15 16 17 17 17
27 27 28 24 18 15 21 28 27 29 34 31 30 32 35 37 36 33 31 29 27 28 27 25 24 26 27 28 29 30 31 31 30 29 27 26 25 24 24 22 21 19 17 16 15 15 16 17 19
26 27 29 24 18 18 18 27 32 34 36 36 35 36 34 35 35 32 30 28 26 25 26 27 25 27 29 29 30 30 31 30 29 28 27 24 24 24 23 21 20 19 18 17 16 16 16 16 18
26 29 30 23 20 18 21 29 35 38 38 39 37 39 38 34 33 28 22 25 26 25 24 26 27 27 28 29 30 31 31 31 30 28 27 27 25 24 23 21 21 20 19 16 16 17 17 17 19
27 30 25 21 20 22 21 26 40 43 40 38 34 37 38 31 32 30 22 22 26 28 28 27 29 28 28 29 30 31 31 31 31 31 30 28 27 26 25 23 22 22 20 19 17 18 19 19 19
26 26 20 19 20 19 22 33 35 40 44 43 40 42 35 31 31 31 27 25 25 29 30 30 30 33 32 32 31 31 32 32 32 32 31 29 28 28 27 26 24 24 23 22 20 19 19 20 19
20 17 11 14 21 17 30 34 37 40 42 42 39 39 38 33 35 37 33 30 30 30 30 31 32 33 33 33 35 35 34 33 33 33 32 31 29 29 30 29 27 27 26 24 24 22 20 20 20
21 18 11 15 20 21 28 29 35 39 39 39 36 36 37 36 37 38 38 36 36 37 36 33 35 33 33 33 34 35 36 35 34 34 34 33 32 31 32 32 30 29 28 27 25 24 22 21 22
27 23 18 21 21 18 20 20 25 32 30 29 30 31 32 36 37 38 37 36 38 40 41 40 37 36 35 36 35 36 36 36 36 36 36 35 35 34 33 33 31 31 31 29 28 27 24 23 22
31 27 26 22 24 24 21 20 23 24 28 27 28 30 29 28 32 35 39 38 38 43 42 40 42 39 37 37 37 37 38 38 39 40 39 38 37 36 34 34 32 32 33 33 32 30 30 26 23
36 33 34 31 31 30 31 30 27 31 31 30 33 37 40 40 38 36 32 34 38 44 46 42 41 40 39 37 39 38 39 41 40 41 42 41 40 39 36 35 33 33 34 35 34 33 32 33 30
39 37 39 39 39 38 38 37 39 39 36 36 38 39 43 48 51 48 42 39 35 41 47 46 40 39 36 41 39 41 40 40 41 41 43 44 42 41 39 36 34 35 35 36 36 36 36 35 36
45 44 43 44 44 42 46 46 48 46 44 43 44 46 47 50 54 58 57 51 45 39 41 45 43 40 40 42 45 43 43 43 44 44 43 43 43 42 41 41 40 39 37 37 38 37 38 38 38
48 49 46 47 49 52 54 53 55 55 57 56 54 52 54 54 58 59 61 60 55 50 44 43 43 44 41 44 46 46 46 46 45 44 46 46 46 45 44 44 44 43 39 40 39 38 39 42 41
49 48 50 50 54 56 57 57 62 60 59 61 63 64 61 58 60 63 64 64 62 57 51 49 48 48 47 45 46 46 45 45 46 45 45 46 46 43 45 43 48 46 37 40 40 41 41 44 44
49 51 51 55 56 58 61 56 61 62 65 67 66 65 67 63 61 66 68 66 65 63 60 56 51 50 51 48 44 43 43 45 46 46 45 44 43 43 43 42 43 48 39 40 41 42 44 47 48
51 51 48 52 58 60 63 60 58 63 67 69 70 70 71 64 62 66 69 69 68 68 65 60 53 52 52 50 48 46 44 45 45 46 46 45 45 44 43 42 42 42 45 49 48 44 44 46 49
52 53 52 53 60 63 66 65 66 69 70 70 71 73 56 52 57 59 62 64 69 70 68 61 54 54 52 52 52 52 50 46 45 46 46 46 45 45 44 43 42 42 46 43 47 50 48 51 53
55 57 56 53 59 63 62 64 64 63 69 61 57 49 46 51 51 56 52 51 52 59 62 60 55 55 54 51 51 51 50 47 45 45 45 45 45 44 44 43 42 42 42 44 45 44 48 49 52
55 57 57 60 59 57 60 63 60 60 54 53 49 44 51 49 48 53 48 49 43 44 44 50 49 55 56 54 51 50 49 47 46 44 44 45 43 43 43 43 42 42 44 46 48 49 52 54 56
53 56 59 57 54 54 54 57 51 50 49 46 47 49 51 52 57 71 58 46 48 50 49 52 48 59 55 53 49 49 48 46 45 44 44 43 42 42 43 44 44 45 47 48 51 53 57 60 59
55 56 51 44 41 43 44 46 43 45 40 39 41 44 49 55 52 40 54 55 53 46 48 50 52 43 49 52 47 46 47 45 44 44 43 43 43 43 45 46 47 49 50 51 53 56 60 63 62
52 45 37 37 36 37 36 42 36 41 39 36 37 37 47 45 48 49 40 41 40 42 41 40 43 45 49 50 45 46 45 44 44 43 44 45 44 45 48 49 50 52 52 53 54 57 63 67 72
41 40 39 39 36 34 35 41 39 41 37 31 33 25 35 50 42 50 43 37 44 43 49 45 42 40 46 40 41 46 45 43 43 44 45 44 45 48 50 51 51 51 54 58 62 63 66 68 71
40 36 37 42 38 32 35 35 37 38 28 26 28 26 32 51 46 47 46 44 54 54 52 43 47 50 49 46 43 40 40 41 42 44 46 47 49 48 48 49 49 55 60 64 61 58 58 59 60
35 32 35 36 33 33 31 28 29 30 29 27 28 25 27 42 49 47 50 50 45 47 44 41 46 51 46 45 44 41 38 39 40 45 46 43 46 47 45 48 52 57 54 54 51 51 57 55 53
32 33 32 33 28 30 29 27 28 22 18 23 16 25 35 51 39 44 47 46 50 40 42 43 37 37 39 37 41 40 36 39 40 43 44 43 45 45 47 48 51 51 51 51 51 52 52 52 46
33 32 31 29 29 31 32 29 26 27 28 29 25 13 7 32 34 28 25 32 45 40 40 40 38 32 29 29 34 39 42 40 41 43 44 43 44 45 49 45 43 46 48 47 47 45 41 38 38
30 29 30 31 25 29 32 25 29 31 34 34 35 34 22 18 25 34 33 31 35 38 40 42 41 40 40 39 42 42 41 40 42 42 43 44 45 46 47 46 43 45 45 43 41 38 36 38 37

GFSSGP_500_spd_117.txt.gz
Wind_Speed
26 26 26 26 21 19 23 28 29 29 28 25 25 24 18 17 20 24 27 30 32 31 31 27 26 26 24 25 28 28 28 28 28 28 28 28 27 26 26 25 24 23 20 18 16 16 17 17 17
28 27 26 25 20 16 24 28 29 30 32 31 29 25 21 21 23 27 30 32 32 31 30 27 26 27 27 25 26 28 29 29 29 28 26 26 26 25 24 24 23 21 19 18 15 15 16 16 16
32 30 27 21 18 18 21 29 30 33 36 37 34 33 30 31 31 31 32 32 33 32 31 30 28 27 27 27 28 28 29 29 28 26 23 22 22 22 22 21 21 20 20 17 15 15 16 16 16
33 30 29 21 19 19 22 30 35 35 37 39 36 32 33 35 33 34 35 32 32 30 28 28 29 28 27 29 29 29 29 30 30 28 26 23 23 22 22 21 20 21 20 19 18 16 15 16 17
32 31 29 20 21 21 24 32 37 37 37 38 37 37 37 38 37 32 30 28 26 25 26 27 28 27 28 28 28 29 29 30 30 30 29 26 24 24 23 22 22 22 22 20 20 19 16 16 17
30 29 26 21 22 22 26 33 36 38 39 36 36 37 36 37 36 33 32 31 25 27 26 27 28 29 28 27 27 28 29 30 31 30 30 29 27 25 24 24 23 23 22 21 21 21 21 19 19
26 23 22 23 22 23 29 34 35 39 42 40 35 36 34 34 33 29 27 26 26 27 30 30 31 31 32 30 29 30 31 32 32 31 31 30 28 26 25 26 25 24 23 24 24 23 23 22 21
19 16 14 20 25 23 34 36 36 38 41 42 40 38 35 34 33 29 30 29 28 30 32 33 32 34 34 34 33 31 31 32 33 33 34 33 32 30 28 29 28 27 25 25 25 25 26 25 24
20 15 15 19 21 23 34 33 33 37 38 39 39 37 35 32 31 29 28 27 27 31 34 37 37 34 36 35 34 33 32 31 31 32 34 35 34 34 32 32 32 30 27 26 26 27 27 27 25
25 20 22 22 22 20 25 25 29 34 36 33 33 31 32 31 27 27 28 29 29 31 33 36 38 36 36 38 37 36 35 34 33 32 33 35 36 36 35 34 34 32 30 28 27 28 28 27 27
27 24 26 24 25 24 19 23 23 28 28 24 26 30 32 35 35 34 30 30 30 33 35 35 36 36 37 36 37 37 37 36 35 35 35 36 37 37 37 37 36 35 34 30 29 29 29 30 29
34 28 30 28 29 29 28 28 29 33 30 29 33 35 35 38 42 42 39 35 34 33 36 36 39 36 35 37 38 39 38 38 37 37 38 38 38 39 39 38 38 39 37 34 32 30 31 31 32
41 37 37 37 33 35 36 37 39 38 34 39 39 40 43 44 45 47 49 48 44 41 40 40 40 40 38 35 37 41 42 44 39 39 39 39 39 40 40 40 41 41 39 37 36 34 35 34 34
42 45 44 44 41 43 42 42 45 40 43 45 48 49 50 53 55 52 51 54 55 53 49 46 44 43 44 42 38 41 40 42 43 42 41 41 41 42 42 41 43 43 42 42 39 39 39 37 36
45 45 47 45 46 47 48 46 45 49 52 54 54 52 55 54 53 54 55 59 62 61 59 56 54 48 48 46 44 43 48 49 48 48 46 46 45 44 44 45 45 46 51 48 48 45 45 41 39
48 48 47 47 47 46 46 50 51 51 54 54 56 58 58 57 58 58 59 57 62 67 62 60 57 57 53 51 49 50 52 51 52 52 50 50 47 46 47 48 48 49 48 55 56 54 44 43 42
46 49 49 49 49 47 48 49 49 52 55 56 57 59 62 63 65 65 65 64 62 62 65 61 62 61 60 56 52 52 53 53 52 52 51 50 49 46 45 45 45 43 48 53 58 35 40 49 43
49 49 49 49 50 49 48 46 48 56 58 60 63 67 69 70 72 74 76 75 73 70 70 70 66 65 65 61 58 54 54 53 53 52 51 51 50 48 45 45 43 43 44 48 40 46 44 45 42
46 46 49 49 52 52 52 51 50 61 62 63 63 67 70 71 74 76 78 76 76 75 73 70 68 64 65 64 59 58 55 53 54 53 52 52 50 50 48 46 44 44 43 42 42 44 41 45 41
48 49 50 52 55 57 56 53 53 60 64 65 66 67 71 73 70 69 71 67 61 61 57 51 57 61 62 62 55 54 56 55 54 54 53 55 53 51 50 48 46 44 44 43 43 44 44 45 46
49 51 52 53 58 59 60 56 56 58 61 61 60 56 56 61 63 59 61 56 50 53 55 51 55 53 48 48 51 57 57 56 56 54 53 53 53 52 50 49 47 45 45 45 45 45 46 48 47
51 51 53 55 58 59 62 64 56 56 56 56 55 56 55 50 50 49 52 50 49 55 58 50 50 41 47 48 52 52 54 56 54 54 52 50 50 51 50 49 47 45 45 46 47 48 48 49 50
51 52 55 56 58 61 59 51 50 49 49 47 46 48 51 50 52 49 48 45 49 48 46 52 46 42 46 47 51 53 51 55 55 54 50 50 50 50 50 49 48 47 46 47 49 51 52 52 54
51 52 53 55 57 58 51 42 41 40 39 42 41 47 47 44 43 43 41 43 42 54 51 51 59 53 46 44 42 42 49 49 56 48 47 47 48 49 50 49 48 47 48 51 52 54 55 55 56
49 50 50 52 50 47 44 41 37 34 35 39 43 43 41 38 37 42 40 37 37 41 45 44 43 48 41 41 40 38 40 41 47 47 42 46 46 48 49 49 49 49 51 51 53 56 55 55 55
47 45 44 44 45 44 37 36 34 34 36 40 43 35 34 29 30 34 41 41 39 33 37 34 37 40 40 45 42 43 46 47 46 45 46 45 47 47 47 48 48 48 51 53 55 56 55 58 57
39 38 36 39 42 40 36 34 35 34 36 39 38 31 33 37 36 31 34 35 30 40 33 40 38 44 49 42 31 33 34 35 41 45 46 47 50 48 47 47 50 52 53 54 54 54 58 58 61
33 32 34 35 38 40 36 34 33 33 35 36 28 18 18 18 29 39 32 45 44 45 38 44 42 45 43 36 39 32 28 26 28 36 48 49 50 52 52 49 49 50 52 52 50 52 58 62 60
32 33 34 35 35 37 37 34 33 32 34 35 22 22 33 27 22 20 29 29 32 43 51 51 50 48 44 40 38 32 32 31 33 35 34 44 42 45 47 48 48 50 49 49 51 51 56 56 58
38 37 33 35 33 33 33 35 34 34 34 29 29 28 29 26 32 30 25 21 17 15 24 27 26 28 31 33 40 43 37 37 38 40 37 37 42 46 46 45 46 49 47 43 47 53 55 56 54

GFSSGP_500_spd_120.txt.gz
Wind_Speed
31 29 27 23 19 16 20 26 29 29 28 28 26 24 22 23 24 19 20 20 23 27 28 29 29 25 25 25 23 23 22 24 25 24 24 24 24 24 24 24 23 22 21 19 18 16 15 15 15
34 33 29 22 17 15 21 26 27 30 31 30 29 30 28 27 28 26 25 26 27 29 30 29 27 27 27 26 25 25 25 23 22 22 22 21 21 21 21 20 20 19 18 16 16 15 14 15 15
34 35 30 21 17 19 25 27 29 29 30 31 31 30 26 28 34 32 29 30 31 31 31 31 31 29 27 26 25 26 26 26 24 23 22 21 21 21 20 19 20 19 18 17 16 15 14 15 15
32 31 28 21 21 23 27 30 30 30 30 32 34 31 28 31 33 35 32 31 31 32 34 34 31 28 27 27 26 26 26 26 25 25 24 22 22 22 21 20 20 20 19 19 18 16 14 14 16
28 27 27 22 24 27 28 31 32 32 31 33 34 34 33 34 35 37 34 30 31 31 33 32 28 27 27 26 26 26 25 25 25 26 26 25 23 23 23 23 22 22 21 20 19 18 16 16 17
26 25 23 23 25 28 30 32 33 33 35 34 33 34 36 35 36 35 34 32 31 33 34 32 28 28 28 27 26 26 25 25 25 25 27 27 26 24 23 24 24 24 23 22 21 21 19 19 20
22 20 19 21 23 27 31 32 32 35 36 38 34 35 34 34 35 34 32 29 27 28 30 33 32 30 29 29 29 28 28 28 28 28 28 28 27 27 27 25 26 26 24 23 24 23 22 23 24
17 14 14 15 19 23 30 30 32 36 38 38 36 33 33 34 35 33 29 23 24 26 28 31 32 33 32 32 32 32 31 32 32 31 29 28 27 28 29 29 28 28 28 26 26 27 26 25 26
18 15 15 16 15 17 24 28 31 35 35 36 36 34 33 34 34 33 30 27 27 26 27 29 32 33 33 32 34 35 34 33 33 33 32 31 29 30 30 30 31 30 29 28 27 28 28 28 27
21 18 20 19 19 17 21 23 26 30 32 31 32 34 33 30 32 32 31 29 28 29 29 27 31 32 30 30 31 35 37 37 36 36 36 34 32 33 32 33 33 32 32 30 29 29 30 30 31
25 23 24 23 21 20 21 25 27 28 25 27 31 31 34 30 32 29 28 27 26 27 28 31 33 32 31 29 30 31 33 37 39 39 39 38 36 36 36 36 35 35 36 35 33 31 31 32 33
33 29 30 30 28 27 26 24 29 31 26 33 36 36 36 39 39 38 37 36 35 33 34 35 32 35 36 37 34 34 35 35 37 41 40 40 40 39 39 38 37 38 39 39 37 35 32 33 34
37 36 36 34 35 38 36 34 33 31 38 39 41 41 42 43 44 46 47 48 47 45 44 44 42 41 39 38 42 40 40 39 39 39 42 45 40 40 41 39 40 41 41 41 42 40 36 36 36
44 42 41 40 39 42 46 41 42 41 39 41 45 44 45 46 47 49 52 54 55 53 55 52 49 47 46 46 46 45 44 45 44 43 43 43 46 43 43 41 40 41 41 43 45 44 42 41 40
48 49 46 44 44 43 43 44 46 47 44 44 45 48 49 51 52 54 55 55 58 57 56 59 59 56 54 52 49 48 48 49 48 48 48 45 45 46 46 46 43 43 45 49 48 49 48 49 46
46 47 47 46 45 44 43 45 47 47 50 50 51 51 52 54 55 54 55 56 56 57 57 58 59 59 57 56 55 53 52 52 52 53 53 51 49 50 51 50 49 47 49 51 53 53 51 54 58
47 50 48 46 44 46 45 46 46 48 49 50 52 52 53 54 54 54 56 59 60 61 62 63 66 67 66 66 63 60 55 55 55 58 56 55 55 53 52 52 52 52 52 52 56 58 57 46 44
52 50 48 48 46 47 44 44 49 50 49 50 52 53 56 58 60 61 61 62 63 63 62 64 67 71 67 64 66 66 63 58 58 60 60 58 55 55 53 50 52 51 48 48 51 53 45 49 58
49 49 49 46 46 47 44 46 50 50 52 54 57 59 61 64 64 64 66 69 70 71 71 71 70 68 66 60 58 61 64 59 59 61 63 62 59 57 55 52 50 51 51 51 53 50 51 50 47
48 48 48 48 48 48 47 46 53 54 56 58 61 63 64 65 68 70 72 72 72 71 67 63 65 61 55 51 55 55 57 57 57 60 61 63 61 60 57 56 54 53 51 51 52 53 52 49 49
44 47 48 50 50 51 51 50 55 56 57 61 63 66 67 68 68 68 68 68 65 59 55 52 47 46 46 50 51 49 47 46 54 55 56 61 61 59 59 58 56 54 54 51 51 51 50 48 49
44 44 48 50 52 53 54 53 55 57 60 62 61 61 62 61 61 60 60 58 54 51 50 48 43 44 52 44 52 51 48 44 43 48 54 60 59 57 58 56 56 55 56 53 50 50 49 49 49
44 45 47 50 52 54 55 57 55 59 61 62 62 61 57 54 51 53 52 51 48 43 38 38 39 43 49 55 53 46 35 38 40 43 48 52 54 59 57 57 53 54 54 53 49 48 49 50 49
46 49 51 53 54 55 53 52 55 57 56 57 55 51 49 46 47 50 47 46 39 38 34 34 33 35 46 38 42 43 35 36 45 38 37 45 46 52 59 56 52 52 52 52 50 49 48 50 51
45 47 50 53 53 52 53 54 54 50 51 51 44 41 40 43 46 43 41 35 30 38 31 30 33 30 40 46 43 42 36 37 38 41 41 38 39 44 55 55 54 54 52 52 50 50 50 51 53
46 46 47 47 50 51 51 53 49 46 43 38 39 37 40 42 42 39 36 38 40 33 38 38 29 48 36 46 40 38 32 35 31 34 35 34 39 41 55 49 48 52 52 51 51 52 51 54 54
44 42 37 39 43 45 47 46 43 40 36 36 38 38 39 38 32 22 25 29 35 32 39 40 34 41 29 29 29 30 31 36 25 23 20 20 29 39 43 56 57 52 52 51 50 51 52 51 52
40 38 37 35 36 41 43 42 38 33 33 34 36 36 35 31 26 29 31 31 27 32 35 43 48 36 42 35 34 29 30 35 32 25 25 25 29 30 33 45 45 48 50 57 57 53 52 54 55
37 37 38 36 37 39 40 38 35 30 31 33 34 36 32 24 27 31 27 28 30 29 33 40 45 49 45 44 42 41 44 43 46 30 30 28 27 30 32 34 47 45 46 49 50 51 51 51 50
33 30 36 38 39 39 41 38 32 25 28 30 32 33 31 33 31 29 31 32 31 32 31 29 20 34 39 36 31 28 26 29 31 32 33 34 29 30 29 33 35 40 50 46 49 49 49 49 49

GFSSGP_500_spd_123.txt.gz
Wind_Speed
24 25 25 21 19 20 22 24 23 22 24 25 25 21 20 20 21 23 25 22 22 24 23 27 27 25 24 22 22 22 19 17 16 16 17 18 19 20 19 19 19 18 17 16 16 14 14 14 13
28 28 28 23 21 21 26 25 25 25 23 24 25 24 24 25 25 27 28 27 25 25 24 25 27 27 26 26 25 23 22 20 18 16 16 17 18 19 19 19 18 17 16 15 15 14 14 14 14
33 34 31 25 22 23 28 26 26 27 24 24 25 26 26 27 27 29 29 28 26 29 29 27 26 28 30 28 25 24 23 22 19 18 17 17 17 19 20 20 19 17 17 17 17 16 15 14 14
34 32 28 24 24 25 29 28 27 28 26 27 27 26 26 28 28 29 29 29 27 29 31 31 31 30 30 28 26 24 23 22 20 19 18 18 17 18 20 20 19 19 18 18 18 18 17 15 14
33 26 23 18 24 27 31 30 27 28 29 28 30 27 28 29 30 31 30 29 30 30 32 35 35 34 29 29 27 25 23 21 20 20 20 19 18 17 19 20 20 19 19 19 18 18 18 17 16
29 22 19 19 24 28 30 30 29 29 30 30 30 31 30 32 32 30 30 28 30 30 32 36 32 32 29 29 27 26 26 24 22 23 23 22 22 20 19 19 20 20 19 19 18 19 19 19 19
23 19 17 16 20 25 27 27 28 30 32 30 31 30 31 31 31 30 30 29 27 28 28 31 31 31 30 29 28 27 27 27 26 26 27 27 26 24 24 22 21 21 22 21 20 21 22 21 20
22 17 14 11 12 17 21 23 26 29 30 30 30 31 31 31 31 31 30 28 27 27 29 33 34 33 32 32 30 29 29 28 28 28 28 29 28 26 26 26 25 24 24 24 23 23 24 23 23
22 18 16 12 12 15 15 18 22 26 26 29 32 32 31 31 31 31 30 28 29 28 30 31 32 33 33 30 31 31 32 33 32 31 30 31 31 30 30 29 29 29 29 26 25 26 26 27 26
22 23 23 19 17 17 19 21 22 24 23 28 29 31 31 28 29 29 30 30 30 29 25 26 27 28 30 30 29 31 33 34 35 36 36 35 34 34 33 33 33 32 33 31 30 30 30 29 29
22 25 27 25 24 21 22 23 23 22 24 29 29 31 31 27 25 24 24 24 24 24 25 25 24 25 26 29 27 29 33 34 34 35 36 37 38 38 36 36 36 36 36 34 35 35 33 33 33
28 27 28 30 30 29 29 27 28 24 28 31 32 32 34 35 33 34 33 32 32 31 33 34 35 35 32 31 33 34 33 34 35 39 39 39 39 40 39 40 40 39 38 38 38 39 38 35 36
34 33 31 32 35 36 37 34 36 35 35 34 35 37 39 40 42 43 44 41 39 40 41 41 42 43 44 42 36 38 39 41 41 39 39 42 43 41 42 41 40 38 40 40 41 42 40 39 38
38 38 38 37 39 42 42 41 41 40 41 41 39 44 45 44 44 45 46 46 46 48 48 50 50 50 49 47 45 45 44 44 47 46 44 44 44 46 45 46 47 43 43 42 43 43 42 42 42
43 43 44 43 43 42 44 45 44 45 44 43 46 46 50 51 49 49 49 50 51 53 54 55 55 54 54 53 50 50 50 52 51 51 51 49 48 48 48 49 48 49 46 45 45 46 45 45 46
46 48 48 48 42 43 44 46 44 44 44 44 45 46 48 49 51 52 53 53 55 56 57 56 57 58 58 59 59 55 53 52 53 54 55 53 51 51 51 50 49 51 47 46 48 49 50 50 50
50 51 50 47 46 47 47 46 45 46 46 46 45 45 46 48 49 51 52 53 53 54 56 58 60 62 63 64 64 65 63 60 58 58 57 59 60 57 56 55 52 53 50 50 51 53 55 54 55
52 51 48 45 44 46 45 46 48 48 48 45 45 46 46 46 47 50 52 53 54 56 59 60 62 63 64 64 67 68 68 65 63 61 64 61 62 63 62 62 58 55 53 51 53 54 53 51 47
51 48 45 42 45 45 45 47 46 47 46 46 48 48 49 50 52 53 54 54 57 59 63 66 69 70 71 69 67 69 69 63 63 61 61 64 66 68 65 65 65 61 57 54 53 53 54 53 52
45 48 46 47 47 48 48 46 46 46 46 47 49 51 53 54 55 56 58 59 61 64 67 69 70 71 70 70 63 60 62 63 61 61 59 61 65 67 67 64 65 64 61 57 56 55 54 54 54
43 44 44 45 44 45 47 49 47 46 47 50 51 53 55 56 58 59 61 61 62 63 63 61 60 60 59 58 55 54 58 57 55 49 54 59 57 63 65 66 63 63 61 59 57 57 56 55 54
42 40 44 44 45 46 45 49 49 51 52 53 55 57 58 59 59 60 60 62 62 63 60 55 55 49 46 46 48 49 51 51 51 48 43 44 44 47 55 61 62 61 62 60 59 58 57 57 55
41 42 43 44 46 47 48 50 50 52 53 54 55 57 57 56 55 54 53 53 53 54 54 52 47 41 37 38 38 46 49 45 48 50 49 37 37 37 41 48 58 60 61 58 59 59 59 56 56
41 42 43 45 47 47 47 49 50 51 54 55 55 55 54 52 50 48 46 48 49 51 47 40 33 31 29 26 32 34 34 43 46 45 28 36 33 31 32 39 47 52 63 60 57 58 56 56 56
43 44 47 48 48 48 48 51 50 50 51 50 50 51 49 45 43 42 43 44 48 46 43 42 36 31 32 29 35 25 34 29 42 40 34 31 35 36 37 39 39 42 52 59 62 58 54 55 55
46 46 47 46 48 49 49 50 50 51 50 47 45 44 42 40 40 39 40 40 37 28 30 38 29 30 38 37 43 28 20 33 41 49 37 26 28 18 22 30 33 37 42 52 57 58 55 52 52
43 41 40 44 45 47 50 50 50 48 43 41 39 39 38 37 35 36 37 34 33 35 34 23 25 30 31 36 38 26 24 25 27 27 29 30 19 18 18 23 28 32 40 43 46 58 56 50 50
39 40 39 41 42 47 48 48 48 41 36 34 35 33 33 34 35 34 33 29 32 33 34 28 29 24 21 29 36 38 33 28 25 27 29 29 33 19 22 22 25 30 30 39 46 51 57 56 50
40 42 42 40 39 40 43 46 41 37 34 31 27 25 27 30 31 30 30 33 30 31 32 32 27 30 31 31 32 31 39 38 34 35 34 34 35 23 26 25 23 24 26 33 38 44 51 60 53
41 41 38 36 34 34 39 40 39 36 32 27 27 30 31 30 30 29 30 30 31 34 35 33 30 29 29 29 30 33 29 33 27 24 23 21 20 25 27 28 29 24 23 26 32 41 40 39 42

GFSSGP_500_spd_126.txt.gz
Wind_Speed
25 24 24 22 21 21 24 23 22 21 20 21 20 18 18 19 21 26 22 24 23 21 20 20 21 22 23 23 22 22 19 15 13 12 13 13 12 13 15 15 15 16 16 15 14 13 13 11 11
25 26 26 26 25 23 30 26 25 22 21 22 21 20 20 23 24 24 23 24 24 22 22 23 22 22 23 24 25 24 23 20 16 13 13 13 14 13 14 15 15 15 16 16 15 15 14 13 12
25 25 26 26 27 26 31 29 28 25 22 22 22 22 23 23 25 25 25 24 24 22 23 24 24 23 25 26 27 26 23 23 20 16 14 14 14 14 14 16 17 16 16 16 16 15 16 15 14
26 27 26 25 28 29 31 30 29 26 25 24 21 23 24 26 27 27 28 25 24 25 25 25 25 27 28 28 26 24 23 23 22 19 16 15 14 14 15 15 17 18 18 19 18 17 16 15 14
27 29 25 22 27 28 30 28 28 26 23 24 24 24 26 27 29 29 28 26 26 27 28 28 30 31 30 27 26 25 23 22 21 20 18 17 16 15 15 16 16 16 17 18 19 18 17 16 15
23 21 20 19 23 25 26 26 27 27 23 23 24 26 27 29 30 30 30 28 26 25 28 30 31 32 30 28 27 26 25 23 21 21 21 21 20 19 19 18 17 18 18 19 19 19 19 18 17
18 18 16 17 20 21 20 22 22 23 23 24 24 27 27 28 29 29 29 28 28 27 29 31 33 32 32 32 28 28 27 27 26 24 22 23 24 24 24 23 21 20 21 21 22 21 22 22 21
17 17 16 16 18 16 16 17 18 20 23 24 23 26 27 27 28 29 28 29 29 29 31 30 31 33 33 32 29 29 30 31 30 29 27 26 25 25 25 26 26 26 24 24 25 25 24 25 25
18 18 17 18 18 19 18 16 15 16 19 20 21 23 23 25 26 28 29 29 29 29 28 28 28 28 28 27 27 27 29 30 33 33 32 32 30 29 29 28 28 30 29 28 27 27 26 28 28
22 20 20 20 22 23 23 21 18 20 22 24 23 21 21 23 24 27 28 27 26 25 24 23 23 23 23 23 24 26 27 28 29 32 32 34 35 34 34 33 33 33 33 33 32 31 30 31 30
25 24 22 19 24 28 28 26 23 23 27 28 27 26 26 26 27 27 25 24 23 22 23 22 24 25 25 26 26 28 31 32 31 30 31 33 34 35 37 37 37 38 36 36 36 36 35 33 32
27 29 28 29 28 28 31 32 30 29 29 30 31 32 34 34 32 29 29 29 29 29 29 31 32 33 33 33 32 33 35 36 37 37 37 36 36 36 38 39 41 41 40 40 40 39 38 39 36
30 32 32 33 35 30 29 37 38 36 36 36 37 38 40 41 38 38 37 37 37 37 37 39 41 41 42 42 42 41 39 40 42 43 43 43 41 42 42 43 43 42 42 43 44 45 43 42 41
32 35 35 36 37 36 35 35 40 42 43 43 43 43 45 45 44 44 45 47 47 44 43 43 44 46 45 46 46 47 48 48 47 47 49 49 49 48 46 47 47 46 44 45 45 44 45 46 44
36 37 39 40 39 40 41 44 39 39 42 45 45 46 47 45 47 49 50 51 52 52 52 50 50 51 52 51 51 51 49 49 50 53 55 54 55 54 52 51 52 51 49 49 50 50 50 50 48
41 41 41 41 42 42 43 46 42 43 44 42 43 47 46 47 48 49 51 54 56 56 55 54 53 54 54 54 52 53 54 55 55 55 55 56 58 57 57 56 56 56 55 53 50 52 50 57 51
42 44 42 45 45 46 46 44 41 42 42 41 43 44 45 45 46 47 48 48 50 50 50 51 52 53 54 57 58 58 58 58 58 59 58 59 60 61 62 60 57 58 60 59 55 55 53 50 48
41 40 44 45 47 47 46 43 39 40 40 43 42 41 41 41 42 44 45 47 48 49 51 52 53 56 57 58 58 58 60 60 61 63 62 63 62 61 64 68 67 64 63 64 64 59 56 55 54
40 43 43 44 45 46 45 44 45 44 44 43 42 42 42 44 45 45 46 48 49 51 52 53 55 57 59 59 59 59 59 61 60 60 59 61 63 65 63 66 70 72 68 65 67 66 62 60 59
40 43 42 43 43 43 45 43 45 43 41 40 41 42 43 44 46 48 49 51 52 54 56 57 60 60 61 60 60 60 58 59 59 57 58 59 59 61 63 64 67 68 73 70 69 70 67 64 61
42 41 43 44 44 44 45 44 44 41 41 40 42 44 45 47 49 50 50 51 53 54 56 57 57 57 56 55 55 56 57 57 56 57 55 59 61 60 61 65 67 69 71 73 69 69 70 66 63
42 39 42 42 42 43 44 44 45 44 43 45 46 47 48 50 51 53 55 57 57 56 54 54 52 52 53 54 55 55 55 55 51 52 54 57 56 57 52 50 51 53 62 71 68 67 69 69 64
41 41 40 40 42 44 45 46 43 44 44 48 50 52 54 55 55 56 56 56 55 55 53 50 49 51 51 53 50 51 50 50 50 51 53 56 54 57 47 46 45 43 45 53 62 65 65 67 67
42 41 41 43 44 44 45 44 44 46 48 49 52 52 52 54 55 55 54 51 50 48 47 47 49 48 47 45 45 47 46 42 45 46 44 47 46 50 49 41 38 38 39 46 51 51 61 66 65
43 43 43 46 46 45 45 46 45 46 48 49 49 50 51 51 52 50 48 45 44 44 44 43 37 34 38 44 45 35 36 35 32 38 43 47 53 54 40 36 37 39 41 43 43 48 51 61 61
43 43 43 44 45 46 46 46 45 44 46 49 50 50 49 48 46 45 44 43 42 40 40 35 32 33 31 30 33 40 38 41 45 39 35 33 38 41 28 28 23 22 24 27 39 47 52 50 50
45 43 41 43 44 46 46 46 45 44 49 50 46 44 43 41 42 42 41 40 40 40 37 35 31 31 29 32 23 26 25 28 31 21 26 32 34 34 30 21 17 17 23 26 27 32 45 46 47
42 42 40 40 41 43 45 45 46 47 50 45 39 36 37 39 40 38 37 37 38 38 33 31 32 32 30 30 31 27 21 22 26 28 23 24 23 25 33 30 24 23 25 28 25 26 33 38 47
42 42 40 39 37 38 43 45 47 49 43 37 35 36 35 37 35 34 34 34 34 35 35 33 32 33 34 29 28 31 29 18 23 31 33 27 28 28 28 30 28 25 29 31 30 29 32 33 38
43 41 40 33 36 34 37 43 43 43 37 36 34 37 37 37 35 36 38 39 39 38 37 34 32 31 33 30 30 28 28 23 18 18 21 26 29 34 28 23 20 24 25 27 28 24 30 32 32

GFSSGP_500_spd_129.txt.gz
Wind_Speed
19 19 20 21 21 20 13 29 24 22 23 20 19 19 19 23 21 27 25 20 22 22 21 20 20 20 19 18 18 17 17 16 15 16 15 15 15 14 14 14 13 13 13 14 13 12 11 10 11
18 16 18 21 20 12 17 34 29 25 25 23 21 20 23 24 25 27 24 22 22 21 20 20 20 20 20 20 21 18 17 17 16 15 15 16 16 15 14 15 14 13 13 15 15 14 13 12 12
18 19 21 23 22 14 21 38 34 29 26 24 22 24 23 23 25 26 24 23 23 22 20 20 20 20 21 23 24 22 18 16 16 15 15 16 16 16 16 16 16 14 15 16 17 17 16 15 15
21 23 25 23 15 27 32 39 32 29 24 23 22 26 25 24 25 26 26 26 26 25 23 22 23 24 25 25 24 21 20 18 18 16 14 15 16 15 15 16 17 17 16 16 16 17 16 16 15
23 23 19 19 20 29 28 32 30 27 24 22 21 26 26 25 25 26 27 26 26 26 27 26 25 27 28 28 27 24 24 22 20 18 17 15 16 16 16 15 16 17 18 17 17 17 16 15 16
22 20 17 8 20 19 24 24 24 23 23 24 23 25 25 26 25 27 28 28 28 29 30 29 29 31 31 29 28 29 26 25 23 22 21 19 19 19 20 19 18 19 20 20 20 20 19 18 18
20 21 15 16 23 22 21 20 20 22 23 24 21 26 25 25 27 27 27 29 29 29 30 29 31 31 31 28 25 26 25 25 25 25 25 25 24 23 23 23 22 21 22 22 23 23 23 22 21
19 18 16 19 19 24 18 16 18 19 22 21 21 28 30 18 27 29 28 30 29 30 30 30 31 32 32 31 25 23 22 22 24 26 26 28 28 27 28 27 26 25 25 25 25 25 26 25 24
18 18 13 22 20 24 21 20 19 19 19 18 18 22 21 23 26 27 27 30 29 30 31 32 32 32 32 30 27 24 22 22 22 23 25 26 28 30 32 32 31 31 31 29 27 28 29 28 25
19 16 21 21 24 25 23 23 24 24 23 23 22 21 20 24 24 23 25 28 26 28 30 32 29 31 30 29 27 24 23 24 23 23 24 24 26 28 30 31 33 34 36 36 34 33 33 32 31
23 21 22 25 26 27 24 26 27 28 29 28 28 29 27 27 26 25 27 27 25 26 30 26 27 28 28 28 27 27 28 29 30 31 30 28 27 27 29 31 30 34 36 37 39 38 38 37 36
25 25 25 28 30 31 31 28 28 32 33 33 32 34 35 33 29 29 29 31 30 30 30 31 31 32 32 32 33 33 34 35 37 37 38 38 36 35 35 35 35 34 34 37 41 42 43 41 39
28 27 27 29 32 33 35 35 31 31 34 39 41 41 43 39 37 39 37 36 37 37 37 38 40 41 40 41 41 42 42 42 43 44 42 43 42 42 42 42 40 40 41 40 40 42 44 46 45
30 31 31 32 33 36 37 39 35 35 32 36 39 47 52 44 44 45 45 45 45 45 44 44 45 47 48 47 47 48 49 49 48 48 48 47 48 47 47 48 47 46 45 46 47 46 46 47 48
33 34 34 34 35 36 36 38 42 37 35 37 38 41 43 42 46 46 47 48 49 49 50 51 50 52 51 51 51 51 52 52 53 52 51 49 51 50 50 51 54 54 52 49 49 50 49 49 50
35 36 35 42 32 38 37 36 50 36 40 40 37 39 39 39 42 44 47 49 50 50 50 51 53 54 53 52 53 54 53 52 53 53 51 52 52 53 54 54 55 57 56 56 56 53 54 52 53
37 37 40 40 35 41 38 41 46 48 43 38 36 37 35 37 39 42 43 45 49 50 49 48 48 49 49 49 50 51 52 53 55 56 57 56 55 55 56 57 58 58 60 61 61 61 59 59 56
36 40 35 36 43 38 38 40 41 44 44 37 39 38 40 41 42 42 42 43 43 43 44 46 48 49 50 52 53 54 56 57 58 58 58 57 57 57 57 58 60 62 63 64 64 64 65 62 60
41 39 40 38 41 43 37 41 40 44 38 38 36 36 38 39 40 40 41 42 43 45 46 47 49 51 53 54 56 57 58 59 59 60 58 58 56 54 54 53 56 59 62 65 68 67 66 67 69
38 39 40 40 43 42 41 44 39 47 38 39 38 38 38 39 40 41 43 44 45 47 49 51 53 54 56 58 59 60 61 60 59 58 58 57 56 55 54 56 58 59 61 62 65 67 69 68 69
38 41 41 41 44 44 41 43 41 46 39 36 38 40 40 42 43 44 45 46 47 49 51 53 55 57 59 60 60 59 55 52 53 53 54 55 55 56 58 59 60 63 65 67 67 67 70 70 70
41 44 42 42 43 41 43 43 41 45 44 39 40 41 42 43 45 47 48 49 50 51 53 56 59 61 59 58 54 53 52 53 54 54 54 53 55 57 58 60 60 59 59 63 65 66 71 73 74
39 45 44 41 41 43 42 44 44 45 45 46 46 47 47 47 48 48 49 50 52 55 55 56 55 52 49 49 50 51 53 54 53 51 51 53 56 58 59 59 57 58 57 54 50 51 56 62 69
46 43 43 42 43 47 42 44 42 42 48 49 47 48 50 50 50 49 50 53 57 56 54 53 50 48 49 50 52 50 49 47 50 50 52 50 52 54 56 58 56 53 54 52 52 52 55 57 57
45 44 44 46 47 45 41 45 44 48 47 48 48 50 49 49 49 51 55 57 55 52 48 46 45 46 46 44 41 42 42 45 48 46 49 50 48 47 47 51 52 50 50 49 51 48 48 51 50
46 46 46 44 42 38 42 48 50 48 45 48 49 48 48 49 52 54 55 54 51 47 45 43 43 43 42 40 39 40 38 40 39 46 52 49 51 52 51 53 50 50 52 44 43 44 46 44 49
49 51 44 49 48 50 50 48 51 47 50 50 47 46 49 51 51 51 49 46 46 43 43 41 42 39 37 36 36 39 37 36 34 34 37 41 44 41 39 42 39 34 36 32 30 28 27 32 37
53 52 49 48 49 50 49 47 36 45 49 50 47 48 47 49 47 45 44 42 42 43 41 39 39 38 38 38 40 38 40 36 31 31 32 38 34 33 31 30 33 33 29 30 27 27 25 32 35
50 50 51 51 50 47 47 42 45 47 48 49 48 45 46 45 43 43 40 40 42 43 43 42 42 42 42 42 43 42 40 38 37 31 29 34 35 28 32 24 22 29 36 34 30 28 32 36 35
49 54 50 49 47 46 45 47 45 46 47 47 47 44 43 44 42 42 42 41 43 47 45 46 45 43 41 40 40 38 37 35 35 33 31 29 29 32 31 32 28 32 35 31 29 29 28 30 34

GFSSGP_500_spd_132.txt.gz
Wind_Speed
19 19 20 20 19 18 20 14 26 29 23 19 19 19 27 24 25 29 23 27 20 20 20 18 17 17 18 17 16 16 14 13 13 13 15 16 17 17 16 15 14 14 14 13 12 12 12 13 12
20 19 18 19 17 17 10 25 31 37 33 28 24 21 33 25 27 30 27 28 24 21 18 18 18 17 19 19 19 18 17 15 13 13 13 14 16 17 17 15 16 15 14 13 13 12 12 13 14
21 18 18 19 20 13 18 30 42 41 32 28 27 28 28 21 25 25 27 27 23 20 20 22 20 19 21 23 22 20 17 15 15 15 15 15 16 18 18 17 15 15 16 15 14 12 12 12 13
20 18 19 19 16 15 23 40 34 36 30 28 26 32 26 25 25 25 26 25 24 23 24 24 23 23 23 24 24 22 19 18 18 17 15 15 15 17 17 17 16 16 16 16 16 14 13 12 11
21 19 18 18 12 27 28 35 31 30 29 26 18 40 24 25 22 24 25 24 26 24 25 25 25 26 26 28 25 23 21 20 19 18 17 17 16 16 16 16 17 18 19 19 18 16 15 15 13
22 19 16 10 13 32 31 24 25 24 22 26 24 31 29 22 23 24 23 24 24 24 25 27 27 29 29 28 26 23 21 20 19 19 18 18 17 18 19 20 19 20 21 22 23 23 20 19 18
22 20 14 10 16 33 33 25 21 20 23 22 17 23 38 19 25 25 25 28 25 28 27 28 28 29 30 29 29 26 24 23 21 19 20 20 21 20 21 22 22 23 24 24 24 24 25 24 22
22 21 17 15 12 29 24 24 20 18 20 16 19 26 34 12 18 28 27 32 26 30 29 32 28 29 30 31 32 29 26 25 24 22 21 20 21 22 23 24 25 25 26 26 26 26 26 26 25
23 16 12 2 24 33 18 24 21 20 21 17 17 23 22 17 22 28 29 34 27 27 31 30 28 30 31 32 33 32 28 27 26 25 23 22 23 24 25 25 26 28 29 30 30 29 29 30 28
22 17 21 20 25 28 22 24 25 25 24 22 23 22 19 24 23 21 26 29 24 24 32 28 28 32 31 32 32 31 32 27 25 23 23 24 24 24 25 25 26 26 28 29 31 32 33 31 32
25 23 29 24 23 27 27 26 27 25 26 30 26 30 27 29 27 24 27 28 25 26 26 26 28 30 30 31 32 30 30 29 28 30 32 31 29 29 29 28 26 27 28 27 29 31 33 33 34
26 24 30 29 23 29 30 30 31 32 33 31 28 32 37 37 31 31 31 33 32 32 29 30 31 32 32 33 34 34 34 35 35 34 36 36 36 36 37 36 36 32 35 35 35 33 32 31 34
26 28 29 28 26 30 30 32 34 35 40 33 34 33 38 35 38 39 40 40 40 38 37 37 38 40 40 39 41 42 43 43 44 41 44 41 44 44 43 42 42 41 39 38 39 40 39 39 38
33 29 31 29 32 32 31 33 36 39 42 38 37 38 38 29 35 38 39 43 44 44 44 44 44 46 49 48 48 49 48 49 49 51 51 50 49 49 48 47 47 47 46 44 42 42 42 43 41
32 34 35 34 34 34 33 33 37 42 37 37 38 41 39 31 34 37 40 39 39 39 41 44 46 47 47 49 53 56 54 60 55 56 57 56 55 54 52 52 50 50 48 48 48 46 46 44 43
37 39 37 34 43 37 35 32 39 41 34 35 37 42 40 25 33 34 34 36 38 39 40 41 43 45 48 48 48 48 48 49 49 50 53 55 56 54 51 50 52 52 53 53 53 53 53 51 49
40 38 37 37 42 42 34 31 36 41 40 36 31 37 38 30 31 36 36 37 38 38 38 38 40 42 42 43 44 45 47 48 48 49 51 52 53 54 56 58 56 56 57 57 57 56 55 54 55
37 37 38 37 44 41 39 28 29 38 43 48 29 37 35 35 35 35 35 35 36 37 37 37 38 40 41 43 45 47 49 50 52 52 53 54 55 56 58 60 61 62 62 62 62 61 61 60 59
36 43 43 34 36 45 46 34 31 36 36 49 34 38 37 38 36 35 35 36 37 38 39 40 41 42 44 46 48 50 51 52 54 56 57 58 59 59 60 61 61 61 62 63 65 63 63 65 67
38 38 39 41 41 44 47 42 40 37 40 46 35 37 37 37 37 36 38 38 39 41 42 43 44 46 47 49 51 54 56 58 59 60 61 62 62 62 60 59 58 58 58 58 60 63 64 65 65
37 38 40 42 43 45 45 43 42 42 44 39 35 36 35 37 39 41 42 42 43 43 46 48 48 48 50 52 56 59 60 60 58 58 57 58 58 58 58 58 59 59 59 60 60 61 63 65 66
39 40 44 46 42 42 43 49 42 44 44 45 42 38 37 37 39 41 43 45 45 47 48 49 51 53 57 59 61 61 57 52 49 49 52 54 55 57 58 58 60 59 62 65 63 64 66 66 67
41 45 46 45 42 45 46 47 41 41 50 48 46 40 37 39 42 42 43 44 47 48 50 51 55 59 61 63 65 63 58 53 51 51 51 49 47 50 54 55 57 59 64 66 67 65 62 60 57
45 47 44 45 47 51 45 42 42 41 41 51 48 43 41 43 45 45 46 47 48 50 53 57 61 64 63 59 55 52 51 52 51 47 46 47 48 49 51 53 53 55 56 60 61 63 61 59 56
46 46 47 50 52 50 43 43 46 40 43 45 44 44 47 48 47 46 47 48 50 52 55 60 63 58 54 51 47 48 49 44 44 45 48 51 51 47 50 51 52 50 51 56 57 56 61 55 53
47 48 50 50 51 47 37 44 45 44 45 45 46 49 49 50 47 45 46 48 49 52 58 59 53 50 45 45 45 44 41 39 40 43 48 49 45 45 49 53 55 52 48 47 48 52 47 48 46
52 54 50 53 52 52 50 47 50 51 51 51 53 53 52 46 44 44 46 48 49 53 54 53 51 46 44 44 44 44 42 41 41 42 45 46 47 43 45 47 48 51 54 61 50 44 47 49 44
57 56 55 55 56 53 50 50 50 50 50 52 54 55 52 47 47 46 46 49 50 51 51 50 49 46 46 45 46 47 48 48 48 48 49 49 46 42 39 44 45 39 37 42 38 34 36 46 40
57 56 61 58 54 53 54 53 52 49 49 53 54 55 52 49 47 46 48 49 48 48 48 49 46 46 49 49 48 50 51 46 45 44 43 43 44 43 38 39 43 38 33 32 32 32 32 32 33
56 54 52 57 59 55 55 54 50 53 48 50 54 55 50 51 48 47 48 48 45 47 47 46 46 49 50 48 48 48 47 43 44 45 43 41 42 41 39 38 34 42 34 26 32 35 36 34 35

GFSSGP_500_spd_135.txt.gz
Wind_Speed
18 17 17 15 12 11 11 12 17 19 21 19 24 26 23 21 28 30 24 17 20 18 16 16 13 14 13 15 16 15 15 15 15 16 16 16 17 17 18 16 15 13 13 13 13 12 11 10 10
19 17 17 14 12 16 19 15 16 24 28 29 38 36 30 25 28 32 30 24 22 22 17 16 15 16 18 17 18 19 16 14 13 15 15 15 16 17 18 18 17 16 14 13 12 13 13 12 11
19 18 16 13 14 19 15 20 23 31 33 37 40 39 33 27 24 30 30 26 25 22 19 18 19 19 21 21 22 22 17 13 13 14 15 15 14 16 17 18 18 17 15 14 14 14 12 11 11
20 17 16 13 14 24 23 24 27 29 28 32 36 37 33 27 23 27 26 22 22 21 19 20 23 22 23 25 25 25 21 18 16 14 15 15 15 16 16 16 17 16 15 14 14 14 15 13 11
20 17 16 12 15 21 21 22 26 27 31 30 32 35 25 23 20 22 22 21 21 22 21 23 24 25 26 27 27 25 23 20 17 16 15 16 16 16 17 17 17 17 18 18 16 17 16 15 15
20 18 17 18 22 26 22 22 25 30 30 29 29 32 25 18 22 23 21 22 22 24 26 26 26 26 27 29 27 26 25 21 20 20 19 18 19 18 18 19 19 20 20 21 20 20 20 19 18
22 19 18 20 22 19 24 25 24 25 24 17 29 27 22 18 23 23 23 23 23 26 27 26 25 26 28 29 29 28 26 24 23 22 23 23 22 22 22 21 21 21 22 22 21 21 21 22 22
24 21 17 15 18 28 25 17 19 22 19 14 25 27 20 11 15 23 27 24 23 25 24 24 25 27 30 29 30 29 28 27 25 26 25 25 25 24 24 24 25 25 25 25 24 23 23 23 23
23 21 24 24 25 28 20 23 17 22 22 21 20 23 23 18 17 24 28 22 18 21 22 23 24 27 31 30 31 31 31 29 28 28 29 28 29 26 24 24 24 25 26 27 27 27 26 25 25
24 25 31 28 28 26 18 26 20 21 26 24 24 23 26 25 21 23 25 25 20 17 19 23 25 26 26 28 29 30 32 31 30 30 31 30 29 27 24 23 24 25 26 27 27 27 27 26 26
27 26 30 29 25 25 25 25 27 25 29 29 25 21 29 27 27 26 27 30 28 23 23 26 26 27 27 27 28 27 28 29 31 31 32 32 35 35 31 27 26 28 29 29 30 27 28 29 28
29 29 32 30 23 25 29 26 26 28 35 30 31 35 33 27 24 28 32 35 36 33 31 30 31 31 31 32 32 33 33 33 33 36 38 41 44 46 38 30 32 32 36 36 36 37 35 35 34
31 29 35 33 23 24 30 30 31 31 37 35 35 40 38 33 28 29 32 33 36 39 40 38 37 37 38 39 39 40 41 41 42 43 43 43 45 46 48 44 43 45 43 40 44 44 42 40 38
31 30 33 34 27 27 30 30 33 33 37 36 40 42 39 36 30 33 36 34 33 34 34 36 39 40 42 42 43 43 44 46 50 52 54 56 55 53 52 52 52 52 52 50 49 48 46 44 44
30 29 30 33 31 35 34 31 33 41 37 36 39 38 38 33 29 38 40 33 28 29 31 32 33 35 37 39 41 44 45 45 46 49 52 55 56 56 54 53 57 57 54 53 51 48 47 46 45
31 32 30 29 38 42 37 34 37 43 38 38 36 36 36 30 28 37 37 32 30 29 30 32 33 34 35 37 37 39 40 42 44 45 45 47 49 51 52 52 52 51 52 53 53 52 50 50 51
33 34 35 36 39 45 42 40 37 39 41 36 36 34 33 31 26 32 32 31 32 31 32 31 32 33 34 35 37 37 38 39 41 43 45 46 49 51 52 54 56 55 54 55 55 55 56 56 58
37 38 39 41 42 45 46 39 38 33 36 34 43 31 32 31 29 31 32 31 30 31 30 30 31 33 35 37 38 40 42 44 46 47 47 48 49 52 55 57 57 59 60 59 59 59 60 61 61
42 42 42 40 41 45 44 43 39 34 36 38 47 44 24 32 32 32 32 30 31 31 31 32 34 36 37 38 40 43 45 48 50 52 53 55 56 57 59 58 59 61 63 63 65 62 62 65 64
40 40 41 40 39 40 43 45 45 36 29 38 47 44 37 32 32 30 31 33 33 34 34 35 35 38 39 41 43 46 48 51 54 57 60 63 63 61 60 59 59 60 60 62 64 64 64 64 65
40 39 37 40 38 43 46 46 47 42 40 39 44 40 37 33 33 33 33 34 33 35 36 37 39 41 45 47 50 52 54 56 61 65 67 63 62 55 54 55 57 59 60 61 62 63 64 65 65
40 37 34 39 42 47 48 50 47 45 41 46 45 41 38 34 34 34 34 33 35 36 38 40 44 47 49 52 53 54 58 62 66 68 65 58 53 52 56 57 60 62 64 65 64 65 66 67 67
38 42 39 44 47 46 47 50 45 41 43 45 46 45 41 35 33 36 36 35 37 39 41 42 45 48 51 53 55 58 63 67 70 67 62 59 56 54 49 49 49 51 53 57 61 64 66 66 65
39 43 45 49 49 48 48 45 41 45 42 49 48 48 42 34 34 36 36 37 39 40 42 44 47 50 51 54 57 61 64 64 61 59 56 55 50 47 50 48 48 49 52 51 56 60 60 58 59
44 46 48 51 51 49 46 47 46 46 46 49 48 44 36 40 43 43 41 41 41 42 45 47 48 50 52 55 58 61 61 58 56 54 52 47 46 46 47 49 49 51 51 53 51 51 52 53 54
45 48 52 50 50 50 49 54 51 49 51 50 45 41 42 45 48 45 43 41 42 45 47 47 46 49 52 56 58 57 58 54 55 51 48 47 48 49 48 50 51 52 53 54 54 50 51 50 43
48 51 48 49 50 55 55 53 52 52 52 53 51 48 47 50 49 48 45 43 45 47 47 45 46 49 52 55 55 54 54 53 54 51 51 51 52 49 48 52 52 50 50 51 53 45 45 50 52
54 52 51 54 57 58 55 53 55 53 52 52 50 48 50 51 51 48 47 47 47 49 47 47 48 49 52 53 54 54 54 54 53 50 50 50 48 46 47 48 46 47 46 47 47 45 41 42 42
52 56 59 59 58 59 57 57 54 52 52 51 51 55 54 52 52 50 48 49 50 48 48 48 49 49 51 53 54 55 54 55 52 47 45 46 45 42 44 45 44 42 44 44 42 38 39 39 36
53 52 55 59 57 60 59 58 56 55 50 50 51 54 52 50 50 50 49 47 49 45 47 49 49 52 54 55 55 53 54 51 44 47 47 46 45 45 45 44 42 39 39 38 37 33 38 35 31

GFSSGP_500_spd_138.txt.gz
Wind_Speed
16 15 13 13 14 17 22 20 17 19 22 22 17 22 25 18 23 31 27 25 21 17 18 14 12 11 11 14 16 16 18 19 18 17 17 17 18 18 18 16 15 16 16 16 16 15 13 11 11
18 16 15 14 17 18 19 20 22 21 17 21 23 25 27 30 33 32 30 30 24 20 19 18 14 14 16 17 20 21 20 20 18 17 16 17 17 17 18 17 16 15 15 16 16 15 15 14 13
18 17 16 14 19 22 19 19 23 22 20 18 20 26 30 32 29 25 28 33 31 28 26 20 17 18 19 20 23 23 22 22 19 19 19 19 19 18 18 18 17 15 15 14 14 14 14 13 12
18 17 16 16 22 24 22 20 24 20 21 22 29 31 28 26 22 23 27 29 28 26 23 20 19 20 23 25 27 25 24 24 22 21 20 20 20 20 19 19 18 17 16 15 14 14 13 12 12
19 18 18 22 27 25 22 21 22 18 19 25 29 30 20 20 17 18 23 27 26 24 23 23 23 24 25 26 27 26 25 24 23 22 21 21 21 20 21 20 19 18 18 18 18 17 17 15 13
21 18 19 25 28 27 22 23 23 21 24 27 24 23 20 20 20 22 19 21 23 24 23 23 23 24 26 28 29 28 26 25 24 23 22 23 24 23 24 24 24 22 21 20 19 19 19 19 18
24 19 21 24 29 27 27 26 18 18 21 27 25 23 20 17 18 16 16 16 20 23 23 24 25 27 28 30 30 30 28 26 25 24 23 24 24 24 26 28 27 27 25 23 22 21 21 20 20
27 20 22 27 30 32 31 25 15 18 22 25 25 24 22 18 16 18 18 17 19 22 25 25 26 28 29 31 32 30 27 27 26 25 25 25 26 26 26 28 30 30 30 29 27 25 25 25 24
28 23 26 33 33 31 31 25 14 19 20 23 25 28 24 21 20 16 14 15 16 19 22 25 27 29 30 31 30 28 27 27 25 25 25 25 26 27 28 29 30 29 29 30 30 28 28 27 27
28 26 32 34 33 33 29 25 21 19 23 24 26 27 24 22 23 22 17 17 18 19 22 26 25 27 26 26 26 25 24 25 25 25 24 24 25 25 26 27 28 29 29 30 30 29 30 30 29
29 28 33 35 34 32 29 27 24 22 25 26 26 27 25 25 27 24 26 25 26 26 27 28 31 30 29 28 27 27 27 28 29 29 30 29 28 28 29 30 32 32 36 30 30 31 34 35 35
30 31 35 35 35 31 34 30 24 25 28 30 28 28 27 28 29 28 30 31 29 29 31 33 35 35 35 34 33 32 32 33 33 34 35 36 36 36 36 38 39 39 33 34 42 40 39 42 38
31 34 36 35 35 34 35 29 28 27 32 32 31 32 32 32 33 31 33 34 34 34 34 36 35 35 39 40 40 39 38 38 40 40 40 41 43 46 48 50 48 47 44 41 43 45 45 45 46
33 32 33 35 32 33 34 34 31 32 35 35 36 37 37 34 33 31 34 38 36 37 36 35 33 33 34 34 35 36 36 37 39 41 43 44 46 45 47 50 52 53 52 50 48 49 51 51 51
34 31 32 34 33 33 34 41 33 39 42 39 39 39 40 37 34 33 35 39 36 36 35 33 30 29 31 32 32 34 35 37 38 40 42 43 44 45 45 45 47 48 49 50 50 52 51 50 50
37 33 30 30 35 36 39 38 35 42 44 43 44 42 40 38 33 33 38 40 35 34 35 33 33 33 32 32 32 33 33 33 34 36 38 40 42 44 46 49 49 50 50 49 51 52 52 52 52
37 32 31 30 35 41 43 39 39 45 45 46 44 42 40 35 30 31 38 35 34 32 31 33 33 32 30 29 30 30 32 33 34 36 39 41 43 45 47 50 52 54 56 56 56 57 57 56 55
32 32 34 36 40 44 47 47 47 44 45 47 43 38 36 31 26 31 33 33 35 33 31 32 31 30 30 31 32 33 34 35 37 39 41 44 46 48 51 53 56 59 61 62 62 60 63 62 60
39 40 42 41 46 46 48 48 50 46 43 39 39 38 37 28 27 30 31 32 33 29 29 29 30 31 33 33 32 33 35 37 38 41 43 45 48 51 54 57 60 62 65 67 68 68 66 65 66
47 48 45 44 45 49 48 47 48 45 41 33 35 39 37 26 28 27 29 32 32 31 31 31 31 32 34 35 35 36 38 40 43 45 48 51 55 59 63 67 68 67 61 57 59 59 61 63 67
44 43 39 39 38 46 47 46 44 43 44 34 37 39 38 33 29 26 29 34 32 32 33 32 33 34 35 37 38 39 41 44 47 50 52 56 59 63 68 72 72 66 60 58 60 62 65 66 67
38 37 39 39 40 43 44 48 45 44 44 41 36 36 37 35 35 31 35 36 34 33 34 35 35 37 38 39 40 42 45 48 50 53 56 58 61 68 72 72 69 63 61 61 61 61 63 67 70
39 37 42 40 39 40 45 49 46 45 46 42 41 42 41 36 34 36 37 35 36 36 35 36 37 38 40 41 44 46 49 51 52 54 56 60 65 65 66 62 62 61 60 54 54 54 55 57 60
42 44 45 46 44 47 46 45 42 48 40 41 46 46 42 41 38 37 38 37 37 37 38 39 39 40 42 44 47 49 52 52 52 53 56 59 62 61 60 58 59 58 54 55 53 52 52 54 56
46 45 48 50 53 51 46 47 42 45 45 43 45 45 43 42 39 39 39 39 38 38 39 40 41 42 43 45 49 50 51 51 52 54 55 57 57 58 58 59 59 56 55 56 56 58 57 54 53
48 48 51 53 51 48 47 53 47 45 45 46 46 45 44 42 40 43 43 43 42 41 43 44 44 45 45 47 50 50 50 51 53 55 55 57 55 57 59 57 55 54 52 53 55 54 54 54 51
43 50 49 50 51 53 55 54 48 46 47 48 46 45 43 41 42 45 45 46 46 47 46 47 48 48 47 49 50 49 50 52 54 56 59 58 55 58 60 54 49 48 46 44 47 50 47 47 49
47 45 47 53 55 56 53 54 49 47 47 48 48 49 46 45 47 49 50 50 53 52 50 49 49 48 47 49 49 47 49 54 56 60 62 59 55 56 52 47 44 43 45 44 46 46 44 43 43
43 46 47 50 53 57 56 56 49 50 51 52 52 52 49 48 51 51 54 51 52 51 50 50 49 47 48 49 47 49 54 58 61 65 62 59 54 55 57 53 50 46 48 47 46 43 40 38 38
54 51 49 52 51 50 49 45 48 51 51 52 51 51 51 53 52 51 52 53 50 48 48 47 47 48 50 44 48 52 57 60 63 67 61 58 50 51 53 50 49 47 46 42 42 39 34 31 30